<?xml version="1.0"?>
<gpx xmlns="http://www.topografix.com/GPX/1/1" xmlns:xsi="http://www.w3.org/2001/XMLSchema-instance" version="1.1" creator="GPX RubyGem 1.0.0 -- http://dougfales.github.io/gpx/" xsi:schemaLocation="http://www.topografix.com/GPX/1/1 http://www.topografix.com/GPX/1/1/gpx.xsd">
  <metadata>
    <name/>
    <time>2026-05-07T17:43:07+00:00</time>
    <bound minlat="90.0" minlon="180.0" maxlat="-90.0" maxlon="-180.0"/>
  </metadata>
  <trk>
    <name/>
    <trkseg>
      <trkpt lat="47.061205" lon="13.057774">
        <time>1970-01-01T00:00:00+00:00</time>
        <ele>1578.0</ele>
      </trkpt>
      <trkpt lat="47.061124" lon="13.057803">
        <time>1970-01-01T00:00:00+00:00</time>
        <ele>1578.0</ele>
      </trkpt>
      <trkpt lat="47.060983" lon="13.057788">
        <time>1970-01-01T00:00:00+00:00</time>
        <ele>1578.0</ele>
      </trkpt>
      <trkpt lat="47.060862" lon="13.057771">
        <time>1970-01-01T00:00:00+00:00</time>
        <ele>1578.0</ele>
      </trkpt>
      <trkpt lat="47.059718" lon="13.057549">
        <time>1970-01-01T00:00:00+00:00</time>
        <ele>1578.0</ele>
      </trkpt>
      <trkpt lat="47.059393" lon="13.057347">
        <time>1970-01-01T00:00:00+00:00</time>
        <ele>1578.0</ele>
      </trkpt>
      <trkpt lat="47.059294" lon="13.057223">
        <time>1970-01-01T00:00:00+00:00</time>
        <ele>1578.0</ele>
      </trkpt>
      <trkpt lat="47.058915" lon="13.056595">
        <time>1970-01-01T00:00:00+00:00</time>
        <ele>1579.0</ele>
      </trkpt>
      <trkpt lat="47.058644" lon="13.056273">
        <time>1970-01-01T00:00:00+00:00</time>
        <ele>1580.0</ele>
      </trkpt>
      <trkpt lat="47.058383" lon="13.056209">
        <time>1970-01-01T00:00:00+00:00</time>
        <ele>1580.0</ele>
      </trkpt>
      <trkpt lat="47.057643" lon="13.056282">
        <time>1970-01-01T00:00:00+00:00</time>
        <ele>1580.0</ele>
      </trkpt>
      <trkpt lat="47.057385" lon="13.05617">
        <time>1970-01-01T00:00:00+00:00</time>
        <ele>1581.0</ele>
      </trkpt>
      <trkpt lat="47.057159" lon="13.055905">
        <time>1970-01-01T00:00:00+00:00</time>
        <ele>1582.0</ele>
      </trkpt>
      <trkpt lat="47.056994" lon="13.055821">
        <time>1970-01-01T00:00:00+00:00</time>
        <ele>1582.0</ele>
      </trkpt>
      <trkpt lat="47.056767" lon="13.055816">
        <time>1970-01-01T00:00:00+00:00</time>
        <ele>1582.0</ele>
      </trkpt>
      <trkpt lat="47.056571" lon="13.055799">
        <time>1970-01-01T00:00:00+00:00</time>
        <ele>1583.0</ele>
      </trkpt>
      <trkpt lat="47.056454" lon="13.055702">
        <time>1970-01-01T00:00:00+00:00</time>
        <ele>1583.0</ele>
      </trkpt>
      <trkpt lat="47.055967" lon="13.054993">
        <time>1970-01-01T00:00:00+00:00</time>
        <ele>1586.0</ele>
      </trkpt>
      <trkpt lat="47.0559" lon="13.054924">
        <time>1970-01-01T00:00:00+00:00</time>
        <ele>1586.0</ele>
      </trkpt>
      <trkpt lat="47.055794" lon="13.054873">
        <time>1970-01-01T00:00:00+00:00</time>
        <ele>1586.0</ele>
      </trkpt>
      <trkpt lat="47.055469" lon="13.054945">
        <time>1970-01-01T00:00:00+00:00</time>
        <ele>1586.0</ele>
      </trkpt>
      <trkpt lat="47.055328" lon="13.054913">
        <time>1970-01-01T00:00:00+00:00</time>
        <ele>1587.0</ele>
      </trkpt>
      <trkpt lat="47.055123" lon="13.054782">
        <time>1970-01-01T00:00:00+00:00</time>
        <ele>1588.0</ele>
      </trkpt>
      <trkpt lat="47.054862" lon="13.05475">
        <time>1970-01-01T00:00:00+00:00</time>
        <ele>1588.0</ele>
      </trkpt>
      <trkpt lat="47.054563" lon="13.054905">
        <time>1970-01-01T00:00:00+00:00</time>
        <ele>1590.0</ele>
      </trkpt>
      <trkpt lat="47.054066" lon="13.055333">
        <time>1970-01-01T00:00:00+00:00</time>
        <ele>1588.0</ele>
      </trkpt>
      <trkpt lat="47.053838" lon="13.055388">
        <time>1970-01-01T00:00:00+00:00</time>
        <ele>1590.0</ele>
      </trkpt>
      <trkpt lat="47.053284" lon="13.055835">
        <time>1970-01-01T00:00:00+00:00</time>
        <ele>1597.0</ele>
      </trkpt>
      <trkpt lat="47.052406" lon="13.05685">
        <time>1970-01-01T00:00:00+00:00</time>
        <ele>1603.0</ele>
      </trkpt>
      <trkpt lat="47.052034" lon="13.057025">
        <time>1970-01-01T00:00:00+00:00</time>
        <ele>1604.0</ele>
      </trkpt>
      <trkpt lat="47.051911" lon="13.05702">
        <time>1970-01-01T00:00:00+00:00</time>
        <ele>1605.0</ele>
      </trkpt>
      <trkpt lat="47.051902" lon="13.05687">
        <time>1970-01-01T00:00:00+00:00</time>
        <ele>1605.0</ele>
      </trkpt>
      <trkpt lat="47.051984" lon="13.056626">
        <time>1970-01-01T00:00:00+00:00</time>
        <ele>1604.0</ele>
      </trkpt>
      <trkpt lat="47.051954" lon="13.056342">
        <time>1970-01-01T00:00:00+00:00</time>
        <ele>1605.0</ele>
      </trkpt>
      <trkpt lat="47.051868" lon="13.056199">
        <time>1970-01-01T00:00:00+00:00</time>
        <ele>1605.0</ele>
      </trkpt>
      <trkpt lat="47.051748" lon="13.056135">
        <time>1970-01-01T00:00:00+00:00</time>
        <ele>1605.0</ele>
      </trkpt>
      <trkpt lat="47.051499" lon="13.056197">
        <time>1970-01-01T00:00:00+00:00</time>
        <ele>1605.0</ele>
      </trkpt>
      <trkpt lat="47.051373" lon="13.056151">
        <time>1970-01-01T00:00:00+00:00</time>
        <ele>1605.0</ele>
      </trkpt>
      <trkpt lat="47.051207" lon="13.055827">
        <time>1970-01-01T00:00:00+00:00</time>
        <ele>1604.0</ele>
      </trkpt>
      <trkpt lat="47.050977" lon="13.055248">
        <time>1970-01-01T00:00:00+00:00</time>
        <ele>1602.0</ele>
      </trkpt>
      <trkpt lat="47.050979" lon="13.054735">
        <time>1970-01-01T00:00:00+00:00</time>
        <ele>1603.0</ele>
      </trkpt>
      <trkpt lat="47.051023" lon="13.054582">
        <time>1970-01-01T00:00:00+00:00</time>
        <ele>1603.0</ele>
      </trkpt>
      <trkpt lat="47.051397" lon="13.05418">
        <time>1970-01-01T00:00:00+00:00</time>
        <ele>1605.0</ele>
      </trkpt>
      <trkpt lat="47.052116" lon="13.053479">
        <time>1970-01-01T00:00:00+00:00</time>
        <ele>1610.0</ele>
      </trkpt>
      <trkpt lat="47.052584" lon="13.052879">
        <time>1970-01-01T00:00:00+00:00</time>
        <ele>1615.0</ele>
      </trkpt>
      <trkpt lat="47.052978" lon="13.052117">
        <time>1970-01-01T00:00:00+00:00</time>
        <ele>1623.0</ele>
      </trkpt>
      <trkpt lat="47.053158" lon="13.051846">
        <time>1970-01-01T00:00:00+00:00</time>
        <ele>1624.0</ele>
      </trkpt>
      <trkpt lat="47.053442" lon="13.051597">
        <time>1970-01-01T00:00:00+00:00</time>
        <ele>1623.0</ele>
      </trkpt>
      <trkpt lat="47.053442" lon="13.0515">
        <time>1970-01-01T00:00:00+00:00</time>
        <ele>1624.0</ele>
      </trkpt>
      <trkpt lat="47.05342" lon="13.051449">
        <time>1970-01-01T00:00:00+00:00</time>
        <ele>1626.0</ele>
      </trkpt>
      <trkpt lat="47.052442" lon="13.051323">
        <time>1970-01-01T00:00:00+00:00</time>
        <ele>1645.0</ele>
      </trkpt>
      <trkpt lat="47.052242" lon="13.051213">
        <time>1970-01-01T00:00:00+00:00</time>
        <ele>1650.0</ele>
      </trkpt>
      <trkpt lat="47.051943" lon="13.05128">
        <time>1970-01-01T00:00:00+00:00</time>
        <ele>1651.0</ele>
      </trkpt>
      <trkpt lat="47.051845" lon="13.051259">
        <time>1970-01-01T00:00:00+00:00</time>
        <ele>1652.0</ele>
      </trkpt>
      <trkpt lat="47.051657" lon="13.051017">
        <time>1970-01-01T00:00:00+00:00</time>
        <ele>1658.0</ele>
      </trkpt>
      <trkpt lat="47.051295" lon="13.050647">
        <time>1970-01-01T00:00:00+00:00</time>
        <ele>1670.0</ele>
      </trkpt>
      <trkpt lat="47.051599" lon="13.050486">
        <time>1970-01-01T00:00:00+00:00</time>
        <ele>1678.0</ele>
      </trkpt>
      <trkpt lat="47.051607" lon="13.050215">
        <time>1970-01-01T00:00:00+00:00</time>
        <ele>1685.0</ele>
      </trkpt>
      <trkpt lat="47.051582" lon="13.050186">
        <time>1970-01-01T00:00:00+00:00</time>
        <ele>1685.0</ele>
      </trkpt>
      <trkpt lat="47.051768" lon="13.049792">
        <time>1970-01-01T00:00:00+00:00</time>
        <ele>1696.0</ele>
      </trkpt>
      <trkpt lat="47.051839" lon="13.049714">
        <time>1970-01-01T00:00:00+00:00</time>
        <ele>1697.0</ele>
      </trkpt>
      <trkpt lat="47.051872" lon="13.049558">
        <time>1970-01-01T00:00:00+00:00</time>
        <ele>1699.0</ele>
      </trkpt>
      <trkpt lat="47.051965" lon="13.049408">
        <time>1970-01-01T00:00:00+00:00</time>
        <ele>1701.0</ele>
      </trkpt>
      <trkpt lat="47.05215" lon="13.049368">
        <time>1970-01-01T00:00:00+00:00</time>
        <ele>1699.0</ele>
      </trkpt>
      <trkpt lat="47.052419" lon="13.049169">
        <time>1970-01-01T00:00:00+00:00</time>
        <ele>1703.0</ele>
      </trkpt>
      <trkpt lat="47.052531" lon="13.049153">
        <time>1970-01-01T00:00:00+00:00</time>
        <ele>1703.0</ele>
      </trkpt>
      <trkpt lat="47.052779" lon="13.048928">
        <time>1970-01-01T00:00:00+00:00</time>
        <ele>1712.0</ele>
      </trkpt>
      <trkpt lat="47.052855" lon="13.048947">
        <time>1970-01-01T00:00:00+00:00</time>
        <ele>1710.0</ele>
      </trkpt>
      <trkpt lat="47.052991" lon="13.048923">
        <time>1970-01-01T00:00:00+00:00</time>
        <ele>1711.0</ele>
      </trkpt>
      <trkpt lat="47.053092" lon="13.048847">
        <time>1970-01-01T00:00:00+00:00</time>
        <ele>1716.0</ele>
      </trkpt>
      <trkpt lat="47.053033" lon="13.048805">
        <time>1970-01-01T00:00:00+00:00</time>
        <ele>1718.0</ele>
      </trkpt>
      <trkpt lat="47.053822" lon="13.048496">
        <time>1970-01-01T00:00:00+00:00</time>
        <ele>1741.0</ele>
      </trkpt>
      <trkpt lat="47.054049" lon="13.048263">
        <time>1970-01-01T00:00:00+00:00</time>
        <ele>1751.0</ele>
      </trkpt>
      <trkpt lat="47.054052" lon="13.048196">
        <time>1970-01-01T00:00:00+00:00</time>
        <ele>1754.0</ele>
      </trkpt>
      <trkpt lat="47.054341" lon="13.048072">
        <time>1970-01-01T00:00:00+00:00</time>
        <ele>1760.0</ele>
      </trkpt>
      <trkpt lat="47.054427" lon="13.04797">
        <time>1970-01-01T00:00:00+00:00</time>
        <ele>1767.0</ele>
      </trkpt>
      <trkpt lat="47.054389" lon="13.047919">
        <time>1970-01-01T00:00:00+00:00</time>
        <ele>1770.0</ele>
      </trkpt>
      <trkpt lat="47.054487" lon="13.04781">
        <time>1970-01-01T00:00:00+00:00</time>
        <ele>1777.0</ele>
      </trkpt>
      <trkpt lat="47.054471" lon="13.047758">
        <time>1970-01-01T00:00:00+00:00</time>
        <ele>1780.0</ele>
      </trkpt>
      <trkpt lat="47.054338" lon="13.047689">
        <time>1970-01-01T00:00:00+00:00</time>
        <ele>1785.0</ele>
      </trkpt>
      <trkpt lat="47.054309" lon="13.047654">
        <time>1970-01-01T00:00:00+00:00</time>
        <ele>1788.0</ele>
      </trkpt>
      <trkpt lat="47.054387" lon="13.047587">
        <time>1970-01-01T00:00:00+00:00</time>
        <ele>1792.0</ele>
      </trkpt>
      <trkpt lat="47.054007" lon="13.047421">
        <time>1970-01-01T00:00:00+00:00</time>
        <ele>1801.0</ele>
      </trkpt>
      <trkpt lat="47.054078" lon="13.0473">
        <time>1970-01-01T00:00:00+00:00</time>
        <ele>1808.0</ele>
      </trkpt>
      <trkpt lat="47.053981" lon="13.047195">
        <time>1970-01-01T00:00:00+00:00</time>
        <ele>1815.0</ele>
      </trkpt>
      <trkpt lat="47.054038" lon="13.047056">
        <time>1970-01-01T00:00:00+00:00</time>
        <ele>1823.0</ele>
      </trkpt>
      <trkpt lat="47.054098" lon="13.046999">
        <time>1970-01-01T00:00:00+00:00</time>
        <ele>1826.0</ele>
      </trkpt>
      <trkpt lat="47.053932" lon="13.046938">
        <time>1970-01-01T00:00:00+00:00</time>
        <ele>1830.0</ele>
      </trkpt>
      <trkpt lat="47.053886" lon="13.04678">
        <time>1970-01-01T00:00:00+00:00</time>
        <ele>1838.0</ele>
      </trkpt>
      <trkpt lat="47.053848" lon="13.046742">
        <time>1970-01-01T00:00:00+00:00</time>
        <ele>1839.0</ele>
      </trkpt>
      <trkpt lat="47.053844" lon="13.046707">
        <time>1970-01-01T00:00:00+00:00</time>
        <ele>1840.0</ele>
      </trkpt>
      <trkpt lat="47.053947" lon="13.046669">
        <time>1970-01-01T00:00:00+00:00</time>
        <ele>1842.0</ele>
      </trkpt>
      <trkpt lat="47.053944" lon="13.046637">
        <time>1970-01-01T00:00:00+00:00</time>
        <ele>1843.0</ele>
      </trkpt>
      <trkpt lat="47.054005" lon="13.046626">
        <time>1970-01-01T00:00:00+00:00</time>
        <ele>1843.0</ele>
      </trkpt>
      <trkpt lat="47.054127" lon="13.046549">
        <time>1970-01-01T00:00:00+00:00</time>
        <ele>1846.0</ele>
      </trkpt>
      <trkpt lat="47.054074" lon="13.046498">
        <time>1970-01-01T00:00:00+00:00</time>
        <ele>1849.0</ele>
      </trkpt>
      <trkpt lat="47.054124" lon="13.046468">
        <time>1970-01-01T00:00:00+00:00</time>
        <ele>1851.0</ele>
      </trkpt>
      <trkpt lat="47.054208" lon="13.046455">
        <time>1970-01-01T00:00:00+00:00</time>
        <ele>1852.0</ele>
      </trkpt>
      <trkpt lat="47.054309" lon="13.046358">
        <time>1970-01-01T00:00:00+00:00</time>
        <ele>1858.0</ele>
      </trkpt>
      <trkpt lat="47.054272" lon="13.046189">
        <time>1970-01-01T00:00:00+00:00</time>
        <ele>1871.0</ele>
      </trkpt>
      <trkpt lat="47.054244" lon="13.046189">
        <time>1970-01-01T00:00:00+00:00</time>
        <ele>1871.0</ele>
      </trkpt>
      <trkpt lat="47.054266" lon="13.046136">
        <time>1970-01-01T00:00:00+00:00</time>
        <ele>1875.0</ele>
      </trkpt>
      <trkpt lat="47.05425" lon="13.04609">
        <time>1970-01-01T00:00:00+00:00</time>
        <ele>1879.0</ele>
      </trkpt>
      <trkpt lat="47.054378" lon="13.045833">
        <time>1970-01-01T00:00:00+00:00</time>
        <ele>1892.0</ele>
      </trkpt>
      <trkpt lat="47.054429" lon="13.04557">
        <time>1970-01-01T00:00:00+00:00</time>
        <ele>1900.0</ele>
      </trkpt>
      <trkpt lat="47.054468" lon="13.045516">
        <time>1970-01-01T00:00:00+00:00</time>
        <ele>1901.0</ele>
      </trkpt>
      <trkpt lat="47.054661" lon="13.045387">
        <time>1970-01-01T00:00:00+00:00</time>
        <ele>1899.0</ele>
      </trkpt>
      <trkpt lat="47.054473" lon="13.045251">
        <time>1970-01-01T00:00:00+00:00</time>
        <ele>1908.0</ele>
      </trkpt>
      <trkpt lat="47.054537" lon="13.045186">
        <time>1970-01-01T00:00:00+00:00</time>
        <ele>1908.0</ele>
      </trkpt>
      <trkpt lat="47.054409" lon="13.045109">
        <time>1970-01-01T00:00:00+00:00</time>
        <ele>1914.0</ele>
      </trkpt>
      <trkpt lat="47.054321" lon="13.045114">
        <time>1970-01-01T00:00:00+00:00</time>
        <ele>1917.0</ele>
      </trkpt>
      <trkpt lat="47.054242" lon="13.045058">
        <time>1970-01-01T00:00:00+00:00</time>
        <ele>1921.0</ele>
      </trkpt>
      <trkpt lat="47.0541" lon="13.045184">
        <time>1970-01-01T00:00:00+00:00</time>
        <ele>1920.0</ele>
      </trkpt>
      <trkpt lat="47.054078" lon="13.045127">
        <time>1970-01-01T00:00:00+00:00</time>
        <ele>1922.0</ele>
      </trkpt>
      <trkpt lat="47.054058" lon="13.045125">
        <time>1970-01-01T00:00:00+00:00</time>
        <ele>1923.0</ele>
      </trkpt>
      <trkpt lat="47.054045" lon="13.045162">
        <time>1970-01-01T00:00:00+00:00</time>
        <ele>1922.0</ele>
      </trkpt>
      <trkpt lat="47.053999" lon="13.045197">
        <time>1970-01-01T00:00:00+00:00</time>
        <ele>1921.0</ele>
      </trkpt>
      <trkpt lat="47.053921" lon="13.045125">
        <time>1970-01-01T00:00:00+00:00</time>
        <ele>1924.0</ele>
      </trkpt>
      <trkpt lat="47.053648" lon="13.045109">
        <time>1970-01-01T00:00:00+00:00</time>
        <ele>1924.0</ele>
      </trkpt>
      <trkpt lat="47.053605" lon="13.045058">
        <time>1970-01-01T00:00:00+00:00</time>
        <ele>1926.0</ele>
      </trkpt>
      <trkpt lat="47.053707" lon="13.044985">
        <time>1970-01-01T00:00:00+00:00</time>
        <ele>1929.0</ele>
      </trkpt>
      <trkpt lat="47.053722" lon="13.04494">
        <time>1970-01-01T00:00:00+00:00</time>
        <ele>1931.0</ele>
      </trkpt>
      <trkpt lat="47.053592" lon="13.044894">
        <time>1970-01-01T00:00:00+00:00</time>
        <ele>1932.0</ele>
      </trkpt>
      <trkpt lat="47.053577" lon="13.044859">
        <time>1970-01-01T00:00:00+00:00</time>
        <ele>1934.0</ele>
      </trkpt>
      <trkpt lat="47.053616" lon="13.044845">
        <time>1970-01-01T00:00:00+00:00</time>
        <ele>1935.0</ele>
      </trkpt>
      <trkpt lat="47.053632" lon="13.044768">
        <time>1970-01-01T00:00:00+00:00</time>
        <ele>1939.0</ele>
      </trkpt>
      <trkpt lat="47.053605" lon="13.04476">
        <time>1970-01-01T00:00:00+00:00</time>
        <ele>1939.0</ele>
      </trkpt>
      <trkpt lat="47.053566" lon="13.044634">
        <time>1970-01-01T00:00:00+00:00</time>
        <ele>1946.0</ele>
      </trkpt>
      <trkpt lat="47.053782" lon="13.044272">
        <time>1970-01-01T00:00:00+00:00</time>
        <ele>1964.0</ele>
      </trkpt>
      <trkpt lat="47.053897" lon="13.044199">
        <time>1970-01-01T00:00:00+00:00</time>
        <ele>1965.0</ele>
      </trkpt>
      <trkpt lat="47.053919" lon="13.044073">
        <time>1970-01-01T00:00:00+00:00</time>
        <ele>1970.0</ele>
      </trkpt>
      <trkpt lat="47.054151" lon="13.043797">
        <time>1970-01-01T00:00:00+00:00</time>
        <ele>1980.0</ele>
      </trkpt>
      <trkpt lat="47.05427" lon="13.043896">
        <time>1970-01-01T00:00:00+00:00</time>
        <ele>1973.0</ele>
      </trkpt>
      <trkpt lat="47.054311" lon="13.043864">
        <time>1970-01-01T00:00:00+00:00</time>
        <ele>1975.0</ele>
      </trkpt>
      <trkpt lat="47.054315" lon="13.043759">
        <time>1970-01-01T00:00:00+00:00</time>
        <ele>1980.0</ele>
      </trkpt>
      <trkpt lat="47.054489" lon="13.043682">
        <time>1970-01-01T00:00:00+00:00</time>
        <ele>1984.0</ele>
      </trkpt>
      <trkpt lat="47.054509" lon="13.043625">
        <time>1970-01-01T00:00:00+00:00</time>
        <ele>1988.0</ele>
      </trkpt>
      <trkpt lat="47.054445" lon="13.043615">
        <time>1970-01-01T00:00:00+00:00</time>
        <ele>1988.0</ele>
      </trkpt>
      <trkpt lat="47.05439" lon="13.043529">
        <time>1970-01-01T00:00:00+00:00</time>
        <ele>1991.0</ele>
      </trkpt>
      <trkpt lat="47.054469" lon="13.043448">
        <time>1970-01-01T00:00:00+00:00</time>
        <ele>1995.0</ele>
      </trkpt>
      <trkpt lat="47.05464" lon="13.043445">
        <time>1970-01-01T00:00:00+00:00</time>
        <ele>1998.0</ele>
      </trkpt>
      <trkpt lat="47.05469" lon="13.043408">
        <time>1970-01-01T00:00:00+00:00</time>
        <ele>2001.0</ele>
      </trkpt>
      <trkpt lat="47.054755" lon="13.043274">
        <time>1970-01-01T00:00:00+00:00</time>
        <ele>2007.0</ele>
      </trkpt>
      <trkpt lat="47.054647" lon="13.04311">
        <time>1970-01-01T00:00:00+00:00</time>
        <ele>2014.0</ele>
      </trkpt>
      <trkpt lat="47.054462" lon="13.042906">
        <time>1970-01-01T00:00:00+00:00</time>
        <ele>2024.0</ele>
      </trkpt>
      <trkpt lat="47.054308" lon="13.042813">
        <time>1970-01-01T00:00:00+00:00</time>
        <ele>2029.0</ele>
      </trkpt>
      <trkpt lat="47.05414" lon="13.042614">
        <time>1970-01-01T00:00:00+00:00</time>
        <ele>2042.0</ele>
      </trkpt>
      <trkpt lat="47.053978" lon="13.042603">
        <time>1970-01-01T00:00:00+00:00</time>
        <ele>2043.0</ele>
      </trkpt>
      <trkpt lat="47.054054" lon="13.042394">
        <time>1970-01-01T00:00:00+00:00</time>
        <ele>2055.0</ele>
      </trkpt>
      <trkpt lat="47.053952" lon="13.042386">
        <time>1970-01-01T00:00:00+00:00</time>
        <ele>2056.0</ele>
      </trkpt>
      <trkpt lat="47.053986" lon="13.042268">
        <time>1970-01-01T00:00:00+00:00</time>
        <ele>2061.0</ele>
      </trkpt>
      <trkpt lat="47.053859" lon="13.042279">
        <time>1970-01-01T00:00:00+00:00</time>
        <ele>2061.0</ele>
      </trkpt>
      <trkpt lat="47.053769" lon="13.042204">
        <time>1970-01-01T00:00:00+00:00</time>
        <ele>2065.0</ele>
      </trkpt>
      <trkpt lat="47.053868" lon="13.042123">
        <time>1970-01-01T00:00:00+00:00</time>
        <ele>2068.0</ele>
      </trkpt>
      <trkpt lat="47.053875" lon="13.042059">
        <time>1970-01-01T00:00:00+00:00</time>
        <ele>2070.0</ele>
      </trkpt>
      <trkpt lat="47.053806" lon="13.042069">
        <time>1970-01-01T00:00:00+00:00</time>
        <ele>2070.0</ele>
      </trkpt>
      <trkpt lat="47.053762" lon="13.042016">
        <time>1970-01-01T00:00:00+00:00</time>
        <ele>2073.0</ele>
      </trkpt>
      <trkpt lat="47.053767" lon="13.041976">
        <time>1970-01-01T00:00:00+00:00</time>
        <ele>2074.0</ele>
      </trkpt>
      <trkpt lat="47.053685" lon="13.041927">
        <time>1970-01-01T00:00:00+00:00</time>
        <ele>2077.0</ele>
      </trkpt>
      <trkpt lat="47.053711" lon="13.04186">
        <time>1970-01-01T00:00:00+00:00</time>
        <ele>2080.0</ele>
      </trkpt>
      <trkpt lat="47.05325" lon="13.041772">
        <time>1970-01-01T00:00:00+00:00</time>
        <ele>2090.0</ele>
      </trkpt>
      <trkpt lat="47.05314" lon="13.041775">
        <time>1970-01-01T00:00:00+00:00</time>
        <ele>2093.0</ele>
      </trkpt>
      <trkpt lat="47.053011" lon="13.041844">
        <time>1970-01-01T00:00:00+00:00</time>
        <ele>2093.0</ele>
      </trkpt>
      <trkpt lat="47.052784" lon="13.041893">
        <time>1970-01-01T00:00:00+00:00</time>
        <ele>2095.0</ele>
      </trkpt>
      <trkpt lat="47.05268" lon="13.041858">
        <time>1970-01-01T00:00:00+00:00</time>
        <ele>2099.0</ele>
      </trkpt>
      <trkpt lat="47.052379" lon="13.041868">
        <time>1970-01-01T00:00:00+00:00</time>
        <ele>2100.0</ele>
      </trkpt>
      <trkpt lat="47.052009" lon="13.041565">
        <time>1970-01-01T00:00:00+00:00</time>
        <ele>2111.0</ele>
      </trkpt>
      <trkpt lat="47.051848" lon="13.041351">
        <time>1970-01-01T00:00:00+00:00</time>
        <ele>2111.0</ele>
      </trkpt>
      <trkpt lat="47.051746" lon="13.041297">
        <time>1970-01-01T00:00:00+00:00</time>
        <ele>2107.0</ele>
      </trkpt>
      <trkpt lat="47.0516" lon="13.041142">
        <time>1970-01-01T00:00:00+00:00</time>
        <ele>2104.0</ele>
      </trkpt>
      <trkpt lat="47.051455" lon="13.041058">
        <time>1970-01-01T00:00:00+00:00</time>
        <ele>2105.0</ele>
      </trkpt>
      <trkpt lat="47.05143" lon="13.040871">
        <time>1970-01-01T00:00:00+00:00</time>
        <ele>2117.0</ele>
      </trkpt>
      <trkpt lat="47.051324" lon="13.040707">
        <time>1970-01-01T00:00:00+00:00</time>
        <ele>2127.0</ele>
      </trkpt>
      <trkpt lat="47.051267" lon="13.040696">
        <time>1970-01-01T00:00:00+00:00</time>
        <ele>2127.0</ele>
      </trkpt>
      <trkpt lat="47.051088" lon="13.040924">
        <time>1970-01-01T00:00:00+00:00</time>
        <ele>2115.0</ele>
      </trkpt>
      <trkpt lat="47.05086" lon="13.040927">
        <time>1970-01-01T00:00:00+00:00</time>
        <ele>2124.0</ele>
      </trkpt>
      <trkpt lat="47.050712" lon="13.040847">
        <time>1970-01-01T00:00:00+00:00</time>
        <ele>2138.0</ele>
      </trkpt>
      <trkpt lat="47.050663" lon="13.040928">
        <time>1970-01-01T00:00:00+00:00</time>
        <ele>2138.0</ele>
      </trkpt>
      <trkpt lat="47.050446" lon="13.040996">
        <time>1970-01-01T00:00:00+00:00</time>
        <ele>2150.0</ele>
      </trkpt>
      <trkpt lat="47.05029" lon="13.041257">
        <time>1970-01-01T00:00:00+00:00</time>
        <ele>2144.0</ele>
      </trkpt>
      <trkpt lat="47.050108" lon="13.041406">
        <time>1970-01-01T00:00:00+00:00</time>
        <ele>2145.0</ele>
      </trkpt>
      <trkpt lat="47.050039" lon="13.041558">
        <time>1970-01-01T00:00:00+00:00</time>
        <ele>2137.0</ele>
      </trkpt>
      <trkpt lat="47.04967" lon="13.041595">
        <time>1970-01-01T00:00:00+00:00</time>
        <ele>2134.0</ele>
      </trkpt>
      <trkpt lat="47.04948" lon="13.041739">
        <time>1970-01-01T00:00:00+00:00</time>
        <ele>2120.0</ele>
      </trkpt>
      <trkpt lat="47.049495" lon="13.041639">
        <time>1970-01-01T00:00:00+00:00</time>
        <ele>2128.0</ele>
      </trkpt>
      <trkpt lat="47.049462" lon="13.041367">
        <time>1970-01-01T00:00:00+00:00</time>
        <ele>2147.0</ele>
      </trkpt>
      <trkpt lat="47.049345" lon="13.041064">
        <time>1970-01-01T00:00:00+00:00</time>
        <ele>2162.0</ele>
      </trkpt>
      <trkpt lat="47.049282" lon="13.040796">
        <time>1970-01-01T00:00:00+00:00</time>
        <ele>2178.0</ele>
      </trkpt>
      <trkpt lat="47.049158" lon="13.040538">
        <time>1970-01-01T00:00:00+00:00</time>
        <ele>2186.0</ele>
      </trkpt>
      <trkpt lat="47.049112" lon="13.040309">
        <time>1970-01-01T00:00:00+00:00</time>
        <ele>2192.0</ele>
      </trkpt>
      <trkpt lat="47.04888" lon="13.03998">
        <time>1970-01-01T00:00:00+00:00</time>
        <ele>2196.0</ele>
      </trkpt>
      <trkpt lat="47.048969" lon="13.039969">
        <time>1970-01-01T00:00:00+00:00</time>
        <ele>2202.0</ele>
      </trkpt>
      <trkpt lat="47.048931" lon="13.039883">
        <time>1970-01-01T00:00:00+00:00</time>
        <ele>2204.0</ele>
      </trkpt>
      <trkpt lat="47.049104" lon="13.039819">
        <time>1970-01-01T00:00:00+00:00</time>
        <ele>2216.0</ele>
      </trkpt>
      <trkpt lat="47.049185" lon="13.039898">
        <time>1970-01-01T00:00:00+00:00</time>
        <ele>2216.0</ele>
      </trkpt>
      <trkpt lat="47.049199" lon="13.039776">
        <time>1970-01-01T00:00:00+00:00</time>
        <ele>2221.0</ele>
      </trkpt>
      <trkpt lat="47.049282" lon="13.039941">
        <time>1970-01-01T00:00:00+00:00</time>
        <ele>2218.0</ele>
      </trkpt>
      <trkpt lat="47.049397" lon="13.040087">
        <time>1970-01-01T00:00:00+00:00</time>
        <ele>2216.0</ele>
      </trkpt>
      <trkpt lat="47.049423" lon="13.03996">
        <time>1970-01-01T00:00:00+00:00</time>
        <ele>2222.0</ele>
      </trkpt>
      <trkpt lat="47.049555" lon="13.040007">
        <time>1970-01-01T00:00:00+00:00</time>
        <ele>2227.0</ele>
      </trkpt>
      <trkpt lat="47.049723" lon="13.040189">
        <time>1970-01-01T00:00:00+00:00</time>
        <ele>2227.0</ele>
      </trkpt>
      <trkpt lat="47.049907" lon="13.040203">
        <time>1970-01-01T00:00:00+00:00</time>
        <ele>2228.0</ele>
      </trkpt>
      <trkpt lat="47.050004" lon="13.040038">
        <time>1970-01-01T00:00:00+00:00</time>
        <ele>2233.0</ele>
      </trkpt>
      <trkpt lat="47.05001" lon="13.039952">
        <time>1970-01-01T00:00:00+00:00</time>
        <ele>2237.0</ele>
      </trkpt>
      <trkpt lat="47.049992" lon="13.039833">
        <time>1970-01-01T00:00:00+00:00</time>
        <ele>2243.0</ele>
      </trkpt>
      <trkpt lat="47.05003" lon="13.039792">
        <time>1970-01-01T00:00:00+00:00</time>
        <ele>2244.0</ele>
      </trkpt>
      <trkpt lat="47.050013" lon="13.039543">
        <time>1970-01-01T00:00:00+00:00</time>
        <ele>2253.0</ele>
      </trkpt>
      <trkpt lat="47.050062" lon="13.039564">
        <time>1970-01-01T00:00:00+00:00</time>
        <ele>2251.0</ele>
      </trkpt>
      <trkpt lat="47.050052" lon="13.039492">
        <time>1970-01-01T00:00:00+00:00</time>
        <ele>2255.0</ele>
      </trkpt>
      <trkpt lat="47.050103" lon="13.0393">
        <time>1970-01-01T00:00:00+00:00</time>
        <ele>2266.0</ele>
      </trkpt>
      <trkpt lat="47.050087" lon="13.039137">
        <time>1970-01-01T00:00:00+00:00</time>
        <ele>2273.0</ele>
      </trkpt>
      <trkpt lat="47.050107" lon="13.039141">
        <time>1970-01-01T00:00:00+00:00</time>
        <ele>2273.0</ele>
      </trkpt>
      <trkpt lat="47.0501" lon="13.039021">
        <time>1970-01-01T00:00:00+00:00</time>
        <ele>2278.0</ele>
      </trkpt>
      <trkpt lat="47.050161" lon="13.039045">
        <time>1970-01-01T00:00:00+00:00</time>
        <ele>2278.0</ele>
      </trkpt>
      <trkpt lat="47.050141" lon="13.038966">
        <time>1970-01-01T00:00:00+00:00</time>
        <ele>2281.0</ele>
      </trkpt>
      <trkpt lat="47.050174" lon="13.038869">
        <time>1970-01-01T00:00:00+00:00</time>
        <ele>2282.0</ele>
      </trkpt>
      <trkpt lat="47.0502" lon="13.038897">
        <time>1970-01-01T00:00:00+00:00</time>
        <ele>2281.0</ele>
      </trkpt>
      <trkpt lat="47.050205" lon="13.038823">
        <time>1970-01-01T00:00:00+00:00</time>
        <ele>2283.0</ele>
      </trkpt>
      <trkpt lat="47.050238" lon="13.038839">
        <time>1970-01-01T00:00:00+00:00</time>
        <ele>2282.0</ele>
      </trkpt>
      <trkpt lat="47.050227" lon="13.038729">
        <time>1970-01-01T00:00:00+00:00</time>
        <ele>2284.0</ele>
      </trkpt>
      <trkpt lat="47.050311" lon="13.038717">
        <time>1970-01-01T00:00:00+00:00</time>
        <ele>2285.0</ele>
      </trkpt>
      <trkpt lat="47.050326" lon="13.038631">
        <time>1970-01-01T00:00:00+00:00</time>
        <ele>2288.0</ele>
      </trkpt>
      <trkpt lat="47.050368" lon="13.038681">
        <time>1970-01-01T00:00:00+00:00</time>
        <ele>2285.0</ele>
      </trkpt>
      <trkpt lat="47.050399" lon="13.038583">
        <time>1970-01-01T00:00:00+00:00</time>
        <ele>2288.0</ele>
      </trkpt>
      <trkpt lat="47.050394" lon="13.038502">
        <time>1970-01-01T00:00:00+00:00</time>
        <ele>2291.0</ele>
      </trkpt>
      <trkpt lat="47.050462" lon="13.038376">
        <time>1970-01-01T00:00:00+00:00</time>
        <ele>2296.0</ele>
      </trkpt>
      <trkpt lat="47.050518" lon="13.038223">
        <time>1970-01-01T00:00:00+00:00</time>
        <ele>2304.0</ele>
      </trkpt>
      <trkpt lat="47.050673" lon="13.0381">
        <time>1970-01-01T00:00:00+00:00</time>
        <ele>2306.0</ele>
      </trkpt>
      <trkpt lat="47.050696" lon="13.03805">
        <time>1970-01-01T00:00:00+00:00</time>
        <ele>2308.0</ele>
      </trkpt>
      <trkpt lat="47.050655" lon="13.037967">
        <time>1970-01-01T00:00:00+00:00</time>
        <ele>2314.0</ele>
      </trkpt>
      <trkpt lat="47.050676" lon="13.03793">
        <time>1970-01-01T00:00:00+00:00</time>
        <ele>2315.0</ele>
      </trkpt>
      <trkpt lat="47.050658" lon="13.037895">
        <time>1970-01-01T00:00:00+00:00</time>
        <ele>2317.0</ele>
      </trkpt>
      <trkpt lat="47.050674" lon="13.037848">
        <time>1970-01-01T00:00:00+00:00</time>
        <ele>2320.0</ele>
      </trkpt>
      <trkpt lat="47.0506" lon="13.037741">
        <time>1970-01-01T00:00:00+00:00</time>
        <ele>2325.0</ele>
      </trkpt>
      <trkpt lat="47.050535" lon="13.037505">
        <time>1970-01-01T00:00:00+00:00</time>
        <ele>2334.0</ele>
      </trkpt>
      <trkpt lat="47.050575" lon="13.037451">
        <time>1970-01-01T00:00:00+00:00</time>
        <ele>2337.0</ele>
      </trkpt>
      <trkpt lat="47.050627" lon="13.037463">
        <time>1970-01-01T00:00:00+00:00</time>
        <ele>2337.0</ele>
      </trkpt>
      <trkpt lat="47.050644" lon="13.037417">
        <time>1970-01-01T00:00:00+00:00</time>
        <ele>2339.0</ele>
      </trkpt>
      <trkpt lat="47.050584" lon="13.037338">
        <time>1970-01-01T00:00:00+00:00</time>
        <ele>2340.0</ele>
      </trkpt>
      <trkpt lat="47.050624" lon="13.037142">
        <time>1970-01-01T00:00:00+00:00</time>
        <ele>2345.0</ele>
      </trkpt>
      <trkpt lat="47.050701" lon="13.036928">
        <time>1970-01-01T00:00:00+00:00</time>
        <ele>2354.0</ele>
      </trkpt>
      <trkpt lat="47.050796" lon="13.036882">
        <time>1970-01-01T00:00:00+00:00</time>
        <ele>2358.0</ele>
      </trkpt>
      <trkpt lat="47.05083" lon="13.036901">
        <time>1970-01-01T00:00:00+00:00</time>
        <ele>2358.0</ele>
      </trkpt>
      <trkpt lat="47.050952" lon="13.036818">
        <time>1970-01-01T00:00:00+00:00</time>
        <ele>2362.0</ele>
      </trkpt>
      <trkpt lat="47.050957" lon="13.036756">
        <time>1970-01-01T00:00:00+00:00</time>
        <ele>2364.0</ele>
      </trkpt>
      <trkpt lat="47.051042" lon="13.036638">
        <time>1970-01-01T00:00:00+00:00</time>
        <ele>2370.0</ele>
      </trkpt>
      <trkpt lat="47.051081" lon="13.036654">
        <time>1970-01-01T00:00:00+00:00</time>
        <ele>2369.0</ele>
      </trkpt>
      <trkpt lat="47.051052" lon="13.036569">
        <time>1970-01-01T00:00:00+00:00</time>
        <ele>2373.0</ele>
      </trkpt>
      <trkpt lat="47.05111" lon="13.036544">
        <time>1970-01-01T00:00:00+00:00</time>
        <ele>2374.0</ele>
      </trkpt>
      <trkpt lat="47.051081" lon="13.036338">
        <time>1970-01-01T00:00:00+00:00</time>
        <ele>2382.0</ele>
      </trkpt>
      <trkpt lat="47.051086" lon="13.036102">
        <time>1970-01-01T00:00:00+00:00</time>
        <ele>2394.0</ele>
      </trkpt>
      <trkpt lat="47.051114" lon="13.03607">
        <time>1970-01-01T00:00:00+00:00</time>
        <ele>2397.0</ele>
      </trkpt>
      <trkpt lat="47.051075" lon="13.036029">
        <time>1970-01-01T00:00:00+00:00</time>
        <ele>2398.0</ele>
      </trkpt>
      <trkpt lat="47.051106" lon="13.036011">
        <time>1970-01-01T00:00:00+00:00</time>
        <ele>2400.0</ele>
      </trkpt>
      <trkpt lat="47.05109" lon="13.035962">
        <time>1970-01-01T00:00:00+00:00</time>
        <ele>2403.0</ele>
      </trkpt>
      <trkpt lat="47.051116" lon="13.035946">
        <time>1970-01-01T00:00:00+00:00</time>
        <ele>2404.0</ele>
      </trkpt>
      <trkpt lat="47.051097" lon="13.035911">
        <time>1970-01-01T00:00:00+00:00</time>
        <ele>2406.0</ele>
      </trkpt>
      <trkpt lat="47.051137" lon="13.035885">
        <time>1970-01-01T00:00:00+00:00</time>
        <ele>2409.0</ele>
      </trkpt>
      <trkpt lat="47.050856" lon="13.035375">
        <time>1970-01-01T00:00:00+00:00</time>
        <ele>2425.0</ele>
      </trkpt>
      <trkpt lat="47.050843" lon="13.035273">
        <time>1970-01-01T00:00:00+00:00</time>
        <ele>2429.0</ele>
      </trkpt>
      <trkpt lat="47.050894" lon="13.035265">
        <time>1970-01-01T00:00:00+00:00</time>
        <ele>2432.0</ele>
      </trkpt>
      <trkpt lat="47.05069" lon="13.034973">
        <time>1970-01-01T00:00:00+00:00</time>
        <ele>2433.0</ele>
      </trkpt>
      <trkpt lat="47.050597" lon="13.034929">
        <time>1970-01-01T00:00:00+00:00</time>
        <ele>2431.0</ele>
      </trkpt>
      <trkpt lat="47.050589" lon="13.034758">
        <time>1970-01-01T00:00:00+00:00</time>
        <ele>2446.0</ele>
      </trkpt>
      <trkpt lat="47.050518" lon="13.03475">
        <time>1970-01-01T00:00:00+00:00</time>
        <ele>2443.0</ele>
      </trkpt>
      <trkpt lat="47.050461" lon="13.034659">
        <time>1970-01-01T00:00:00+00:00</time>
        <ele>2449.0</ele>
      </trkpt>
      <trkpt lat="47.050529" lon="13.03464">
        <time>1970-01-01T00:00:00+00:00</time>
        <ele>2453.0</ele>
      </trkpt>
      <trkpt lat="47.050514" lon="13.034605">
        <time>1970-01-01T00:00:00+00:00</time>
        <ele>2456.0</ele>
      </trkpt>
      <trkpt lat="47.050534" lon="13.034581">
        <time>1970-01-01T00:00:00+00:00</time>
        <ele>2458.0</ele>
      </trkpt>
      <trkpt lat="47.050512" lon="13.034492">
        <time>1970-01-01T00:00:00+00:00</time>
        <ele>2465.0</ele>
      </trkpt>
      <trkpt lat="47.050525" lon="13.034243">
        <time>1970-01-01T00:00:00+00:00</time>
        <ele>2477.0</ele>
      </trkpt>
      <trkpt lat="47.050582" lon="13.034149">
        <time>1970-01-01T00:00:00+00:00</time>
        <ele>2480.0</ele>
      </trkpt>
      <trkpt lat="47.05062" lon="13.034026">
        <time>1970-01-01T00:00:00+00:00</time>
        <ele>2486.0</ele>
      </trkpt>
      <trkpt lat="47.050561" lon="13.034017">
        <time>1970-01-01T00:00:00+00:00</time>
        <ele>2485.0</ele>
      </trkpt>
      <trkpt lat="47.050434" lon="13.033913">
        <time>1970-01-01T00:00:00+00:00</time>
        <ele>2486.0</ele>
      </trkpt>
      <trkpt lat="47.050222" lon="13.033589">
        <time>1970-01-01T00:00:00+00:00</time>
        <ele>2489.0</ele>
      </trkpt>
      <trkpt lat="47.050247" lon="13.033562">
        <time>1970-01-01T00:00:00+00:00</time>
        <ele>2491.0</ele>
      </trkpt>
      <trkpt lat="47.0502" lon="13.033524">
        <time>1970-01-01T00:00:00+00:00</time>
        <ele>2489.0</ele>
      </trkpt>
      <trkpt lat="47.050187" lon="13.033471">
        <time>1970-01-01T00:00:00+00:00</time>
        <ele>2490.0</ele>
      </trkpt>
      <trkpt lat="47.050079" lon="13.033404">
        <time>1970-01-01T00:00:00+00:00</time>
        <ele>2487.0</ele>
      </trkpt>
      <trkpt lat="47.04997" lon="13.033409">
        <time>1970-01-01T00:00:00+00:00</time>
        <ele>2483.0</ele>
      </trkpt>
      <trkpt lat="47.049802" lon="13.033264">
        <time>1970-01-01T00:00:00+00:00</time>
        <ele>2486.0</ele>
      </trkpt>
      <trkpt lat="47.04959" lon="13.032926">
        <time>1970-01-01T00:00:00+00:00</time>
        <ele>2503.0</ele>
      </trkpt>
      <trkpt lat="47.049515" lon="13.03276">
        <time>1970-01-01T00:00:00+00:00</time>
        <ele>2513.0</ele>
      </trkpt>
      <trkpt lat="47.049513" lon="13.032642">
        <time>1970-01-01T00:00:00+00:00</time>
        <ele>2519.0</ele>
      </trkpt>
      <trkpt lat="47.049449" lon="13.032534">
        <time>1970-01-01T00:00:00+00:00</time>
        <ele>2523.0</ele>
      </trkpt>
      <trkpt lat="47.049442" lon="13.032449">
        <time>1970-01-01T00:00:00+00:00</time>
        <ele>2527.0</ele>
      </trkpt>
      <trkpt lat="47.049303" lon="13.032156">
        <time>1970-01-01T00:00:00+00:00</time>
        <ele>2536.0</ele>
      </trkpt>
      <trkpt lat="47.049228" lon="13.031695">
        <time>1970-01-01T00:00:00+00:00</time>
        <ele>2545.0</ele>
      </trkpt>
      <trkpt lat="47.049318" lon="13.031586">
        <time>1970-01-01T00:00:00+00:00</time>
        <ele>2551.0</ele>
      </trkpt>
      <trkpt lat="47.049265" lon="13.031521">
        <time>1970-01-01T00:00:00+00:00</time>
        <ele>2552.0</ele>
      </trkpt>
      <trkpt lat="47.049197" lon="13.031035">
        <time>1970-01-01T00:00:00+00:00</time>
        <ele>2566.0</ele>
      </trkpt>
      <trkpt lat="47.0491" lon="13.030706">
        <time>1970-01-01T00:00:00+00:00</time>
        <ele>2570.0</ele>
      </trkpt>
      <trkpt lat="47.049125" lon="13.030453">
        <time>1970-01-01T00:00:00+00:00</time>
        <ele>2579.0</ele>
      </trkpt>
      <trkpt lat="47.04906" lon="13.030259">
        <time>1970-01-01T00:00:00+00:00</time>
        <ele>2583.0</ele>
      </trkpt>
      <trkpt lat="47.049081" lon="13.030206">
        <time>1970-01-01T00:00:00+00:00</time>
        <ele>2585.0</ele>
      </trkpt>
      <trkpt lat="47.048974" lon="13.030092">
        <time>1970-01-01T00:00:00+00:00</time>
        <ele>2587.0</ele>
      </trkpt>
      <trkpt lat="47.049098" lon="13.030008">
        <time>1970-01-01T00:00:00+00:00</time>
        <ele>2593.0</ele>
      </trkpt>
      <trkpt lat="47.04899" lon="13.02996">
        <time>1970-01-01T00:00:00+00:00</time>
        <ele>2594.0</ele>
      </trkpt>
      <trkpt lat="47.049096" lon="13.02986">
        <time>1970-01-01T00:00:00+00:00</time>
        <ele>2600.0</ele>
      </trkpt>
      <trkpt lat="47.0489" lon="13.029592">
        <time>1970-01-01T00:00:00+00:00</time>
        <ele>2610.0</ele>
      </trkpt>
      <trkpt lat="47.049018" lon="13.029469">
        <time>1970-01-01T00:00:00+00:00</time>
        <ele>2615.0</ele>
      </trkpt>
      <trkpt lat="47.048948" lon="13.029375">
        <time>1970-01-01T00:00:00+00:00</time>
        <ele>2617.0</ele>
      </trkpt>
      <trkpt lat="47.048997" lon="13.029329">
        <time>1970-01-01T00:00:00+00:00</time>
        <ele>2619.0</ele>
      </trkpt>
      <trkpt lat="47.048869" lon="13.029262">
        <time>1970-01-01T00:00:00+00:00</time>
        <ele>2621.0</ele>
      </trkpt>
      <trkpt lat="47.049046" lon="13.029127">
        <time>1970-01-01T00:00:00+00:00</time>
        <ele>2624.0</ele>
      </trkpt>
      <trkpt lat="47.048746" lon="13.028951">
        <time>1970-01-01T00:00:00+00:00</time>
        <ele>2633.0</ele>
      </trkpt>
      <trkpt lat="47.048998" lon="13.028687">
        <time>1970-01-01T00:00:00+00:00</time>
        <ele>2643.0</ele>
      </trkpt>
      <trkpt lat="47.048386" lon="13.028487">
        <time>1970-01-01T00:00:00+00:00</time>
        <ele>2654.0</ele>
      </trkpt>
      <trkpt lat="47.048384" lon="13.028428">
        <time>1970-01-01T00:00:00+00:00</time>
        <ele>2658.0</ele>
      </trkpt>
      <trkpt lat="47.048507" lon="13.028388">
        <time>1970-01-01T00:00:00+00:00</time>
        <ele>2664.0</ele>
      </trkpt>
      <trkpt lat="47.048402" lon="13.028325">
        <time>1970-01-01T00:00:00+00:00</time>
        <ele>2667.0</ele>
      </trkpt>
      <trkpt lat="47.048511" lon="13.028278">
        <time>1970-01-01T00:00:00+00:00</time>
        <ele>2673.0</ele>
      </trkpt>
      <trkpt lat="47.048312" lon="13.028069">
        <time>1970-01-01T00:00:00+00:00</time>
        <ele>2684.0</ele>
      </trkpt>
      <trkpt lat="47.04847" lon="13.027992">
        <time>1970-01-01T00:00:00+00:00</time>
        <ele>2693.0</ele>
      </trkpt>
      <trkpt lat="47.048314" lon="13.027777">
        <time>1970-01-01T00:00:00+00:00</time>
        <ele>2706.0</ele>
      </trkpt>
      <trkpt lat="47.048381" lon="13.027655">
        <time>1970-01-01T00:00:00+00:00</time>
        <ele>2717.0</ele>
      </trkpt>
      <trkpt lat="47.048084" lon="13.027586">
        <time>1970-01-01T00:00:00+00:00</time>
        <ele>2710.0</ele>
      </trkpt>
      <trkpt lat="47.047957" lon="13.027483">
        <time>1970-01-01T00:00:00+00:00</time>
        <ele>2714.0</ele>
      </trkpt>
      <trkpt lat="47.047745" lon="13.027559">
        <time>1970-01-01T00:00:00+00:00</time>
        <ele>2704.0</ele>
      </trkpt>
      <trkpt lat="47.04763" lon="13.027532">
        <time>1970-01-01T00:00:00+00:00</time>
        <ele>2703.0</ele>
      </trkpt>
      <trkpt lat="47.047804" lon="13.02728">
        <time>1970-01-01T00:00:00+00:00</time>
        <ele>2723.0</ele>
      </trkpt>
      <trkpt lat="47.047482" lon="13.025335">
        <time>1970-01-01T00:00:00+00:00</time>
        <ele>2870.0</ele>
      </trkpt>
      <trkpt lat="47.047459" lon="13.025183">
        <time>1970-01-01T00:00:00+00:00</time>
        <ele>2886.0</ele>
      </trkpt>
      <trkpt lat="47.047431" lon="13.025183">
        <time>1970-01-01T00:00:00+00:00</time>
        <ele>2886.0</ele>
      </trkpt>
      <trkpt lat="47.047374" lon="13.025124">
        <time>1970-01-01T00:00:00+00:00</time>
        <ele>2893.0</ele>
      </trkpt>
      <trkpt lat="47.047367" lon="13.025064">
        <time>1970-01-01T00:00:00+00:00</time>
        <ele>2900.0</ele>
      </trkpt>
      <trkpt lat="47.047181" lon="13.02492">
        <time>1970-01-01T00:00:00+00:00</time>
        <ele>2912.0</ele>
      </trkpt>
      <trkpt lat="47.04699" lon="13.024678">
        <time>1970-01-01T00:00:00+00:00</time>
        <ele>2922.0</ele>
      </trkpt>
      <trkpt lat="47.04699" lon="13.024678">
        <time>1970-01-01T00:00:00+00:00</time>
        <ele>2922.0</ele>
      </trkpt>
      <trkpt lat="47.047181" lon="13.02492">
        <time>1970-01-01T00:00:00+00:00</time>
        <ele>2912.0</ele>
      </trkpt>
      <trkpt lat="47.047367" lon="13.025064">
        <time>1970-01-01T00:00:00+00:00</time>
        <ele>2900.0</ele>
      </trkpt>
      <trkpt lat="47.047374" lon="13.025124">
        <time>1970-01-01T00:00:00+00:00</time>
        <ele>2893.0</ele>
      </trkpt>
      <trkpt lat="47.047431" lon="13.025183">
        <time>1970-01-01T00:00:00+00:00</time>
        <ele>2886.0</ele>
      </trkpt>
      <trkpt lat="47.047459" lon="13.025183">
        <time>1970-01-01T00:00:00+00:00</time>
        <ele>2886.0</ele>
      </trkpt>
      <trkpt lat="47.047482" lon="13.025335">
        <time>1970-01-01T00:00:00+00:00</time>
        <ele>2870.0</ele>
      </trkpt>
      <trkpt lat="47.047804" lon="13.02728">
        <time>1970-01-01T00:00:00+00:00</time>
        <ele>2723.0</ele>
      </trkpt>
      <trkpt lat="47.04763" lon="13.027532">
        <time>1970-01-01T00:00:00+00:00</time>
        <ele>2703.0</ele>
      </trkpt>
      <trkpt lat="47.047745" lon="13.027559">
        <time>1970-01-01T00:00:00+00:00</time>
        <ele>2704.0</ele>
      </trkpt>
      <trkpt lat="47.047957" lon="13.027483">
        <time>1970-01-01T00:00:00+00:00</time>
        <ele>2714.0</ele>
      </trkpt>
      <trkpt lat="47.048084" lon="13.027586">
        <time>1970-01-01T00:00:00+00:00</time>
        <ele>2710.0</ele>
      </trkpt>
      <trkpt lat="47.048381" lon="13.027655">
        <time>1970-01-01T00:00:00+00:00</time>
        <ele>2717.0</ele>
      </trkpt>
      <trkpt lat="47.048314" lon="13.027777">
        <time>1970-01-01T00:00:00+00:00</time>
        <ele>2706.0</ele>
      </trkpt>
      <trkpt lat="47.04847" lon="13.027992">
        <time>1970-01-01T00:00:00+00:00</time>
        <ele>2693.0</ele>
      </trkpt>
      <trkpt lat="47.048312" lon="13.028069">
        <time>1970-01-01T00:00:00+00:00</time>
        <ele>2684.0</ele>
      </trkpt>
      <trkpt lat="47.048511" lon="13.028278">
        <time>1970-01-01T00:00:00+00:00</time>
        <ele>2673.0</ele>
      </trkpt>
      <trkpt lat="47.048402" lon="13.028325">
        <time>1970-01-01T00:00:00+00:00</time>
        <ele>2667.0</ele>
      </trkpt>
      <trkpt lat="47.048507" lon="13.028388">
        <time>1970-01-01T00:00:00+00:00</time>
        <ele>2664.0</ele>
      </trkpt>
      <trkpt lat="47.048384" lon="13.028428">
        <time>1970-01-01T00:00:00+00:00</time>
        <ele>2658.0</ele>
      </trkpt>
      <trkpt lat="47.048386" lon="13.028487">
        <time>1970-01-01T00:00:00+00:00</time>
        <ele>2654.0</ele>
      </trkpt>
      <trkpt lat="47.048998" lon="13.028687">
        <time>1970-01-01T00:00:00+00:00</time>
        <ele>2643.0</ele>
      </trkpt>
      <trkpt lat="47.048746" lon="13.028951">
        <time>1970-01-01T00:00:00+00:00</time>
        <ele>2633.0</ele>
      </trkpt>
      <trkpt lat="47.049046" lon="13.029127">
        <time>1970-01-01T00:00:00+00:00</time>
        <ele>2624.0</ele>
      </trkpt>
      <trkpt lat="47.048869" lon="13.029262">
        <time>1970-01-01T00:00:00+00:00</time>
        <ele>2621.0</ele>
      </trkpt>
      <trkpt lat="47.048997" lon="13.029329">
        <time>1970-01-01T00:00:00+00:00</time>
        <ele>2619.0</ele>
      </trkpt>
      <trkpt lat="47.048948" lon="13.029375">
        <time>1970-01-01T00:00:00+00:00</time>
        <ele>2617.0</ele>
      </trkpt>
      <trkpt lat="47.049018" lon="13.029469">
        <time>1970-01-01T00:00:00+00:00</time>
        <ele>2615.0</ele>
      </trkpt>
      <trkpt lat="47.0489" lon="13.029592">
        <time>1970-01-01T00:00:00+00:00</time>
        <ele>2610.0</ele>
      </trkpt>
      <trkpt lat="47.049096" lon="13.02986">
        <time>1970-01-01T00:00:00+00:00</time>
        <ele>2600.0</ele>
      </trkpt>
      <trkpt lat="47.04899" lon="13.02996">
        <time>1970-01-01T00:00:00+00:00</time>
        <ele>2594.0</ele>
      </trkpt>
      <trkpt lat="47.049098" lon="13.030008">
        <time>1970-01-01T00:00:00+00:00</time>
        <ele>2593.0</ele>
      </trkpt>
      <trkpt lat="47.048974" lon="13.030092">
        <time>1970-01-01T00:00:00+00:00</time>
        <ele>2587.0</ele>
      </trkpt>
      <trkpt lat="47.049081" lon="13.030206">
        <time>1970-01-01T00:00:00+00:00</time>
        <ele>2585.0</ele>
      </trkpt>
      <trkpt lat="47.04906" lon="13.030259">
        <time>1970-01-01T00:00:00+00:00</time>
        <ele>2583.0</ele>
      </trkpt>
      <trkpt lat="47.049125" lon="13.030453">
        <time>1970-01-01T00:00:00+00:00</time>
        <ele>2579.0</ele>
      </trkpt>
      <trkpt lat="47.0491" lon="13.030706">
        <time>1970-01-01T00:00:00+00:00</time>
        <ele>2570.0</ele>
      </trkpt>
      <trkpt lat="47.049197" lon="13.031035">
        <time>1970-01-01T00:00:00+00:00</time>
        <ele>2566.0</ele>
      </trkpt>
      <trkpt lat="47.049265" lon="13.031521">
        <time>1970-01-01T00:00:00+00:00</time>
        <ele>2552.0</ele>
      </trkpt>
      <trkpt lat="47.049318" lon="13.031586">
        <time>1970-01-01T00:00:00+00:00</time>
        <ele>2551.0</ele>
      </trkpt>
      <trkpt lat="47.049228" lon="13.031695">
        <time>1970-01-01T00:00:00+00:00</time>
        <ele>2545.0</ele>
      </trkpt>
      <trkpt lat="47.049303" lon="13.032156">
        <time>1970-01-01T00:00:00+00:00</time>
        <ele>2536.0</ele>
      </trkpt>
      <trkpt lat="47.049442" lon="13.032449">
        <time>1970-01-01T00:00:00+00:00</time>
        <ele>2527.0</ele>
      </trkpt>
      <trkpt lat="47.049449" lon="13.032534">
        <time>1970-01-01T00:00:00+00:00</time>
        <ele>2523.0</ele>
      </trkpt>
      <trkpt lat="47.049513" lon="13.032642">
        <time>1970-01-01T00:00:00+00:00</time>
        <ele>2519.0</ele>
      </trkpt>
      <trkpt lat="47.049515" lon="13.03276">
        <time>1970-01-01T00:00:00+00:00</time>
        <ele>2513.0</ele>
      </trkpt>
      <trkpt lat="47.04959" lon="13.032926">
        <time>1970-01-01T00:00:00+00:00</time>
        <ele>2503.0</ele>
      </trkpt>
      <trkpt lat="47.049802" lon="13.033264">
        <time>1970-01-01T00:00:00+00:00</time>
        <ele>2486.0</ele>
      </trkpt>
      <trkpt lat="47.04997" lon="13.033409">
        <time>1970-01-01T00:00:00+00:00</time>
        <ele>2483.0</ele>
      </trkpt>
      <trkpt lat="47.050079" lon="13.033404">
        <time>1970-01-01T00:00:00+00:00</time>
        <ele>2487.0</ele>
      </trkpt>
      <trkpt lat="47.050187" lon="13.033471">
        <time>1970-01-01T00:00:00+00:00</time>
        <ele>2490.0</ele>
      </trkpt>
      <trkpt lat="47.0502" lon="13.033524">
        <time>1970-01-01T00:00:00+00:00</time>
        <ele>2489.0</ele>
      </trkpt>
      <trkpt lat="47.050247" lon="13.033562">
        <time>1970-01-01T00:00:00+00:00</time>
        <ele>2491.0</ele>
      </trkpt>
      <trkpt lat="47.050222" lon="13.033589">
        <time>1970-01-01T00:00:00+00:00</time>
        <ele>2489.0</ele>
      </trkpt>
      <trkpt lat="47.050434" lon="13.033913">
        <time>1970-01-01T00:00:00+00:00</time>
        <ele>2486.0</ele>
      </trkpt>
      <trkpt lat="47.050561" lon="13.034017">
        <time>1970-01-01T00:00:00+00:00</time>
        <ele>2485.0</ele>
      </trkpt>
      <trkpt lat="47.05062" lon="13.034026">
        <time>1970-01-01T00:00:00+00:00</time>
        <ele>2486.0</ele>
      </trkpt>
      <trkpt lat="47.050582" lon="13.034149">
        <time>1970-01-01T00:00:00+00:00</time>
        <ele>2480.0</ele>
      </trkpt>
      <trkpt lat="47.050525" lon="13.034243">
        <time>1970-01-01T00:00:00+00:00</time>
        <ele>2477.0</ele>
      </trkpt>
      <trkpt lat="47.050512" lon="13.034492">
        <time>1970-01-01T00:00:00+00:00</time>
        <ele>2465.0</ele>
      </trkpt>
      <trkpt lat="47.050534" lon="13.034581">
        <time>1970-01-01T00:00:00+00:00</time>
        <ele>2458.0</ele>
      </trkpt>
      <trkpt lat="47.050514" lon="13.034605">
        <time>1970-01-01T00:00:00+00:00</time>
        <ele>2456.0</ele>
      </trkpt>
      <trkpt lat="47.050529" lon="13.03464">
        <time>1970-01-01T00:00:00+00:00</time>
        <ele>2453.0</ele>
      </trkpt>
      <trkpt lat="47.050461" lon="13.034659">
        <time>1970-01-01T00:00:00+00:00</time>
        <ele>2449.0</ele>
      </trkpt>
      <trkpt lat="47.050518" lon="13.03475">
        <time>1970-01-01T00:00:00+00:00</time>
        <ele>2443.0</ele>
      </trkpt>
      <trkpt lat="47.050589" lon="13.034758">
        <time>1970-01-01T00:00:00+00:00</time>
        <ele>2446.0</ele>
      </trkpt>
      <trkpt lat="47.050597" lon="13.034929">
        <time>1970-01-01T00:00:00+00:00</time>
        <ele>2431.0</ele>
      </trkpt>
      <trkpt lat="47.05069" lon="13.034973">
        <time>1970-01-01T00:00:00+00:00</time>
        <ele>2433.0</ele>
      </trkpt>
      <trkpt lat="47.050894" lon="13.035265">
        <time>1970-01-01T00:00:00+00:00</time>
        <ele>2432.0</ele>
      </trkpt>
      <trkpt lat="47.050843" lon="13.035273">
        <time>1970-01-01T00:00:00+00:00</time>
        <ele>2429.0</ele>
      </trkpt>
      <trkpt lat="47.050856" lon="13.035375">
        <time>1970-01-01T00:00:00+00:00</time>
        <ele>2425.0</ele>
      </trkpt>
      <trkpt lat="47.051137" lon="13.035885">
        <time>1970-01-01T00:00:00+00:00</time>
        <ele>2409.0</ele>
      </trkpt>
      <trkpt lat="47.051097" lon="13.035911">
        <time>1970-01-01T00:00:00+00:00</time>
        <ele>2406.0</ele>
      </trkpt>
      <trkpt lat="47.051116" lon="13.035946">
        <time>1970-01-01T00:00:00+00:00</time>
        <ele>2404.0</ele>
      </trkpt>
      <trkpt lat="47.05109" lon="13.035962">
        <time>1970-01-01T00:00:00+00:00</time>
        <ele>2403.0</ele>
      </trkpt>
      <trkpt lat="47.051106" lon="13.036011">
        <time>1970-01-01T00:00:00+00:00</time>
        <ele>2400.0</ele>
      </trkpt>
      <trkpt lat="47.051075" lon="13.036029">
        <time>1970-01-01T00:00:00+00:00</time>
        <ele>2398.0</ele>
      </trkpt>
      <trkpt lat="47.051114" lon="13.03607">
        <time>1970-01-01T00:00:00+00:00</time>
        <ele>2397.0</ele>
      </trkpt>
      <trkpt lat="47.051086" lon="13.036102">
        <time>1970-01-01T00:00:00+00:00</time>
        <ele>2394.0</ele>
      </trkpt>
      <trkpt lat="47.051081" lon="13.036338">
        <time>1970-01-01T00:00:00+00:00</time>
        <ele>2382.0</ele>
      </trkpt>
      <trkpt lat="47.05111" lon="13.036544">
        <time>1970-01-01T00:00:00+00:00</time>
        <ele>2374.0</ele>
      </trkpt>
      <trkpt lat="47.051052" lon="13.036569">
        <time>1970-01-01T00:00:00+00:00</time>
        <ele>2373.0</ele>
      </trkpt>
      <trkpt lat="47.051081" lon="13.036654">
        <time>1970-01-01T00:00:00+00:00</time>
        <ele>2369.0</ele>
      </trkpt>
      <trkpt lat="47.051042" lon="13.036638">
        <time>1970-01-01T00:00:00+00:00</time>
        <ele>2370.0</ele>
      </trkpt>
      <trkpt lat="47.050957" lon="13.036756">
        <time>1970-01-01T00:00:00+00:00</time>
        <ele>2364.0</ele>
      </trkpt>
      <trkpt lat="47.050952" lon="13.036818">
        <time>1970-01-01T00:00:00+00:00</time>
        <ele>2362.0</ele>
      </trkpt>
      <trkpt lat="47.05083" lon="13.036901">
        <time>1970-01-01T00:00:00+00:00</time>
        <ele>2358.0</ele>
      </trkpt>
      <trkpt lat="47.050796" lon="13.036882">
        <time>1970-01-01T00:00:00+00:00</time>
        <ele>2358.0</ele>
      </trkpt>
      <trkpt lat="47.050701" lon="13.036928">
        <time>1970-01-01T00:00:00+00:00</time>
        <ele>2354.0</ele>
      </trkpt>
      <trkpt lat="47.050624" lon="13.037142">
        <time>1970-01-01T00:00:00+00:00</time>
        <ele>2345.0</ele>
      </trkpt>
      <trkpt lat="47.050584" lon="13.037338">
        <time>1970-01-01T00:00:00+00:00</time>
        <ele>2340.0</ele>
      </trkpt>
      <trkpt lat="47.050644" lon="13.037417">
        <time>1970-01-01T00:00:00+00:00</time>
        <ele>2339.0</ele>
      </trkpt>
      <trkpt lat="47.050627" lon="13.037463">
        <time>1970-01-01T00:00:00+00:00</time>
        <ele>2337.0</ele>
      </trkpt>
      <trkpt lat="47.050575" lon="13.037451">
        <time>1970-01-01T00:00:00+00:00</time>
        <ele>2337.0</ele>
      </trkpt>
      <trkpt lat="47.050535" lon="13.037505">
        <time>1970-01-01T00:00:00+00:00</time>
        <ele>2334.0</ele>
      </trkpt>
      <trkpt lat="47.0506" lon="13.037741">
        <time>1970-01-01T00:00:00+00:00</time>
        <ele>2325.0</ele>
      </trkpt>
      <trkpt lat="47.050674" lon="13.037848">
        <time>1970-01-01T00:00:00+00:00</time>
        <ele>2320.0</ele>
      </trkpt>
      <trkpt lat="47.050658" lon="13.037895">
        <time>1970-01-01T00:00:00+00:00</time>
        <ele>2317.0</ele>
      </trkpt>
      <trkpt lat="47.050676" lon="13.03793">
        <time>1970-01-01T00:00:00+00:00</time>
        <ele>2315.0</ele>
      </trkpt>
      <trkpt lat="47.050655" lon="13.037967">
        <time>1970-01-01T00:00:00+00:00</time>
        <ele>2314.0</ele>
      </trkpt>
      <trkpt lat="47.050696" lon="13.03805">
        <time>1970-01-01T00:00:00+00:00</time>
        <ele>2308.0</ele>
      </trkpt>
      <trkpt lat="47.050673" lon="13.0381">
        <time>1970-01-01T00:00:00+00:00</time>
        <ele>2306.0</ele>
      </trkpt>
      <trkpt lat="47.050518" lon="13.038223">
        <time>1970-01-01T00:00:00+00:00</time>
        <ele>2304.0</ele>
      </trkpt>
      <trkpt lat="47.050462" lon="13.038376">
        <time>1970-01-01T00:00:00+00:00</time>
        <ele>2296.0</ele>
      </trkpt>
      <trkpt lat="47.050394" lon="13.038502">
        <time>1970-01-01T00:00:00+00:00</time>
        <ele>2291.0</ele>
      </trkpt>
      <trkpt lat="47.050399" lon="13.038583">
        <time>1970-01-01T00:00:00+00:00</time>
        <ele>2288.0</ele>
      </trkpt>
      <trkpt lat="47.050368" lon="13.038681">
        <time>1970-01-01T00:00:00+00:00</time>
        <ele>2285.0</ele>
      </trkpt>
      <trkpt lat="47.050326" lon="13.038631">
        <time>1970-01-01T00:00:00+00:00</time>
        <ele>2288.0</ele>
      </trkpt>
      <trkpt lat="47.050311" lon="13.038717">
        <time>1970-01-01T00:00:00+00:00</time>
        <ele>2285.0</ele>
      </trkpt>
      <trkpt lat="47.050227" lon="13.038729">
        <time>1970-01-01T00:00:00+00:00</time>
        <ele>2284.0</ele>
      </trkpt>
      <trkpt lat="47.050238" lon="13.038839">
        <time>1970-01-01T00:00:00+00:00</time>
        <ele>2282.0</ele>
      </trkpt>
      <trkpt lat="47.050205" lon="13.038823">
        <time>1970-01-01T00:00:00+00:00</time>
        <ele>2283.0</ele>
      </trkpt>
      <trkpt lat="47.0502" lon="13.038897">
        <time>1970-01-01T00:00:00+00:00</time>
        <ele>2281.0</ele>
      </trkpt>
      <trkpt lat="47.050174" lon="13.038869">
        <time>1970-01-01T00:00:00+00:00</time>
        <ele>2282.0</ele>
      </trkpt>
      <trkpt lat="47.050141" lon="13.038966">
        <time>1970-01-01T00:00:00+00:00</time>
        <ele>2281.0</ele>
      </trkpt>
      <trkpt lat="47.050161" lon="13.039045">
        <time>1970-01-01T00:00:00+00:00</time>
        <ele>2278.0</ele>
      </trkpt>
      <trkpt lat="47.0501" lon="13.039021">
        <time>1970-01-01T00:00:00+00:00</time>
        <ele>2278.0</ele>
      </trkpt>
      <trkpt lat="47.050107" lon="13.039141">
        <time>1970-01-01T00:00:00+00:00</time>
        <ele>2273.0</ele>
      </trkpt>
      <trkpt lat="47.050087" lon="13.039137">
        <time>1970-01-01T00:00:00+00:00</time>
        <ele>2273.0</ele>
      </trkpt>
      <trkpt lat="47.050103" lon="13.0393">
        <time>1970-01-01T00:00:00+00:00</time>
        <ele>2266.0</ele>
      </trkpt>
      <trkpt lat="47.050052" lon="13.039492">
        <time>1970-01-01T00:00:00+00:00</time>
        <ele>2255.0</ele>
      </trkpt>
      <trkpt lat="47.050062" lon="13.039564">
        <time>1970-01-01T00:00:00+00:00</time>
        <ele>2251.0</ele>
      </trkpt>
      <trkpt lat="47.050013" lon="13.039543">
        <time>1970-01-01T00:00:00+00:00</time>
        <ele>2253.0</ele>
      </trkpt>
      <trkpt lat="47.05003" lon="13.039792">
        <time>1970-01-01T00:00:00+00:00</time>
        <ele>2244.0</ele>
      </trkpt>
      <trkpt lat="47.049992" lon="13.039833">
        <time>1970-01-01T00:00:00+00:00</time>
        <ele>2243.0</ele>
      </trkpt>
      <trkpt lat="47.05001" lon="13.039952">
        <time>1970-01-01T00:00:00+00:00</time>
        <ele>2237.0</ele>
      </trkpt>
      <trkpt lat="47.050004" lon="13.040038">
        <time>1970-01-01T00:00:00+00:00</time>
        <ele>2233.0</ele>
      </trkpt>
      <trkpt lat="47.049907" lon="13.040203">
        <time>1970-01-01T00:00:00+00:00</time>
        <ele>2228.0</ele>
      </trkpt>
      <trkpt lat="47.049723" lon="13.040189">
        <time>1970-01-01T00:00:00+00:00</time>
        <ele>2227.0</ele>
      </trkpt>
      <trkpt lat="47.049555" lon="13.040007">
        <time>1970-01-01T00:00:00+00:00</time>
        <ele>2227.0</ele>
      </trkpt>
      <trkpt lat="47.049423" lon="13.03996">
        <time>1970-01-01T00:00:00+00:00</time>
        <ele>2222.0</ele>
      </trkpt>
      <trkpt lat="47.049397" lon="13.040087">
        <time>1970-01-01T00:00:00+00:00</time>
        <ele>2216.0</ele>
      </trkpt>
      <trkpt lat="47.049282" lon="13.039941">
        <time>1970-01-01T00:00:00+00:00</time>
        <ele>2218.0</ele>
      </trkpt>
      <trkpt lat="47.049199" lon="13.039776">
        <time>1970-01-01T00:00:00+00:00</time>
        <ele>2221.0</ele>
      </trkpt>
      <trkpt lat="47.049185" lon="13.039898">
        <time>1970-01-01T00:00:00+00:00</time>
        <ele>2216.0</ele>
      </trkpt>
      <trkpt lat="47.049104" lon="13.039819">
        <time>1970-01-01T00:00:00+00:00</time>
        <ele>2216.0</ele>
      </trkpt>
      <trkpt lat="47.048931" lon="13.039883">
        <time>1970-01-01T00:00:00+00:00</time>
        <ele>2204.0</ele>
      </trkpt>
      <trkpt lat="47.048969" lon="13.039969">
        <time>1970-01-01T00:00:00+00:00</time>
        <ele>2202.0</ele>
      </trkpt>
      <trkpt lat="47.04888" lon="13.03998">
        <time>1970-01-01T00:00:00+00:00</time>
        <ele>2196.0</ele>
      </trkpt>
      <trkpt lat="47.049112" lon="13.040309">
        <time>1970-01-01T00:00:00+00:00</time>
        <ele>2192.0</ele>
      </trkpt>
      <trkpt lat="47.049158" lon="13.040538">
        <time>1970-01-01T00:00:00+00:00</time>
        <ele>2186.0</ele>
      </trkpt>
      <trkpt lat="47.049282" lon="13.040796">
        <time>1970-01-01T00:00:00+00:00</time>
        <ele>2178.0</ele>
      </trkpt>
      <trkpt lat="47.049345" lon="13.041064">
        <time>1970-01-01T00:00:00+00:00</time>
        <ele>2162.0</ele>
      </trkpt>
      <trkpt lat="47.049462" lon="13.041367">
        <time>1970-01-01T00:00:00+00:00</time>
        <ele>2147.0</ele>
      </trkpt>
      <trkpt lat="47.049495" lon="13.041639">
        <time>1970-01-01T00:00:00+00:00</time>
        <ele>2128.0</ele>
      </trkpt>
      <trkpt lat="47.04948" lon="13.041739">
        <time>1970-01-01T00:00:00+00:00</time>
        <ele>2120.0</ele>
      </trkpt>
      <trkpt lat="47.04967" lon="13.041595">
        <time>1970-01-01T00:00:00+00:00</time>
        <ele>2134.0</ele>
      </trkpt>
      <trkpt lat="47.050039" lon="13.041558">
        <time>1970-01-01T00:00:00+00:00</time>
        <ele>2137.0</ele>
      </trkpt>
      <trkpt lat="47.050108" lon="13.041406">
        <time>1970-01-01T00:00:00+00:00</time>
        <ele>2145.0</ele>
      </trkpt>
      <trkpt lat="47.05029" lon="13.041257">
        <time>1970-01-01T00:00:00+00:00</time>
        <ele>2144.0</ele>
      </trkpt>
      <trkpt lat="47.050446" lon="13.040996">
        <time>1970-01-01T00:00:00+00:00</time>
        <ele>2150.0</ele>
      </trkpt>
      <trkpt lat="47.050663" lon="13.040928">
        <time>1970-01-01T00:00:00+00:00</time>
        <ele>2138.0</ele>
      </trkpt>
      <trkpt lat="47.050712" lon="13.040847">
        <time>1970-01-01T00:00:00+00:00</time>
        <ele>2138.0</ele>
      </trkpt>
      <trkpt lat="47.05086" lon="13.040927">
        <time>1970-01-01T00:00:00+00:00</time>
        <ele>2124.0</ele>
      </trkpt>
      <trkpt lat="47.051088" lon="13.040924">
        <time>1970-01-01T00:00:00+00:00</time>
        <ele>2115.0</ele>
      </trkpt>
      <trkpt lat="47.051267" lon="13.040696">
        <time>1970-01-01T00:00:00+00:00</time>
        <ele>2127.0</ele>
      </trkpt>
      <trkpt lat="47.051324" lon="13.040707">
        <time>1970-01-01T00:00:00+00:00</time>
        <ele>2127.0</ele>
      </trkpt>
      <trkpt lat="47.05143" lon="13.040871">
        <time>1970-01-01T00:00:00+00:00</time>
        <ele>2117.0</ele>
      </trkpt>
      <trkpt lat="47.051455" lon="13.041058">
        <time>1970-01-01T00:00:00+00:00</time>
        <ele>2105.0</ele>
      </trkpt>
      <trkpt lat="47.0516" lon="13.041142">
        <time>1970-01-01T00:00:00+00:00</time>
        <ele>2104.0</ele>
      </trkpt>
      <trkpt lat="47.051746" lon="13.041297">
        <time>1970-01-01T00:00:00+00:00</time>
        <ele>2107.0</ele>
      </trkpt>
      <trkpt lat="47.051848" lon="13.041351">
        <time>1970-01-01T00:00:00+00:00</time>
        <ele>2111.0</ele>
      </trkpt>
      <trkpt lat="47.052009" lon="13.041565">
        <time>1970-01-01T00:00:00+00:00</time>
        <ele>2111.0</ele>
      </trkpt>
      <trkpt lat="47.052379" lon="13.041868">
        <time>1970-01-01T00:00:00+00:00</time>
        <ele>2100.0</ele>
      </trkpt>
      <trkpt lat="47.05268" lon="13.041858">
        <time>1970-01-01T00:00:00+00:00</time>
        <ele>2099.0</ele>
      </trkpt>
      <trkpt lat="47.052784" lon="13.041893">
        <time>1970-01-01T00:00:00+00:00</time>
        <ele>2095.0</ele>
      </trkpt>
      <trkpt lat="47.053011" lon="13.041844">
        <time>1970-01-01T00:00:00+00:00</time>
        <ele>2093.0</ele>
      </trkpt>
      <trkpt lat="47.05314" lon="13.041775">
        <time>1970-01-01T00:00:00+00:00</time>
        <ele>2093.0</ele>
      </trkpt>
      <trkpt lat="47.05325" lon="13.041772">
        <time>1970-01-01T00:00:00+00:00</time>
        <ele>2090.0</ele>
      </trkpt>
      <trkpt lat="47.053711" lon="13.04186">
        <time>1970-01-01T00:00:00+00:00</time>
        <ele>2080.0</ele>
      </trkpt>
      <trkpt lat="47.053685" lon="13.041927">
        <time>1970-01-01T00:00:00+00:00</time>
        <ele>2077.0</ele>
      </trkpt>
      <trkpt lat="47.053767" lon="13.041976">
        <time>1970-01-01T00:00:00+00:00</time>
        <ele>2074.0</ele>
      </trkpt>
      <trkpt lat="47.053762" lon="13.042016">
        <time>1970-01-01T00:00:00+00:00</time>
        <ele>2073.0</ele>
      </trkpt>
      <trkpt lat="47.053806" lon="13.042069">
        <time>1970-01-01T00:00:00+00:00</time>
        <ele>2070.0</ele>
      </trkpt>
      <trkpt lat="47.053875" lon="13.042059">
        <time>1970-01-01T00:00:00+00:00</time>
        <ele>2070.0</ele>
      </trkpt>
      <trkpt lat="47.053868" lon="13.042123">
        <time>1970-01-01T00:00:00+00:00</time>
        <ele>2068.0</ele>
      </trkpt>
      <trkpt lat="47.053769" lon="13.042204">
        <time>1970-01-01T00:00:00+00:00</time>
        <ele>2065.0</ele>
      </trkpt>
      <trkpt lat="47.053859" lon="13.042279">
        <time>1970-01-01T00:00:00+00:00</time>
        <ele>2061.0</ele>
      </trkpt>
      <trkpt lat="47.053986" lon="13.042268">
        <time>1970-01-01T00:00:00+00:00</time>
        <ele>2061.0</ele>
      </trkpt>
      <trkpt lat="47.053952" lon="13.042386">
        <time>1970-01-01T00:00:00+00:00</time>
        <ele>2056.0</ele>
      </trkpt>
      <trkpt lat="47.054054" lon="13.042394">
        <time>1970-01-01T00:00:00+00:00</time>
        <ele>2055.0</ele>
      </trkpt>
      <trkpt lat="47.053978" lon="13.042603">
        <time>1970-01-01T00:00:00+00:00</time>
        <ele>2043.0</ele>
      </trkpt>
      <trkpt lat="47.05414" lon="13.042614">
        <time>1970-01-01T00:00:00+00:00</time>
        <ele>2042.0</ele>
      </trkpt>
      <trkpt lat="47.054308" lon="13.042813">
        <time>1970-01-01T00:00:00+00:00</time>
        <ele>2029.0</ele>
      </trkpt>
      <trkpt lat="47.054462" lon="13.042906">
        <time>1970-01-01T00:00:00+00:00</time>
        <ele>2024.0</ele>
      </trkpt>
      <trkpt lat="47.054647" lon="13.04311">
        <time>1970-01-01T00:00:00+00:00</time>
        <ele>2014.0</ele>
      </trkpt>
      <trkpt lat="47.054755" lon="13.043274">
        <time>1970-01-01T00:00:00+00:00</time>
        <ele>2007.0</ele>
      </trkpt>
      <trkpt lat="47.05469" lon="13.043408">
        <time>1970-01-01T00:00:00+00:00</time>
        <ele>2001.0</ele>
      </trkpt>
      <trkpt lat="47.05464" lon="13.043445">
        <time>1970-01-01T00:00:00+00:00</time>
        <ele>1998.0</ele>
      </trkpt>
      <trkpt lat="47.054469" lon="13.043448">
        <time>1970-01-01T00:00:00+00:00</time>
        <ele>1995.0</ele>
      </trkpt>
      <trkpt lat="47.05439" lon="13.043529">
        <time>1970-01-01T00:00:00+00:00</time>
        <ele>1991.0</ele>
      </trkpt>
      <trkpt lat="47.054445" lon="13.043615">
        <time>1970-01-01T00:00:00+00:00</time>
        <ele>1988.0</ele>
      </trkpt>
      <trkpt lat="47.054509" lon="13.043625">
        <time>1970-01-01T00:00:00+00:00</time>
        <ele>1988.0</ele>
      </trkpt>
      <trkpt lat="47.054489" lon="13.043682">
        <time>1970-01-01T00:00:00+00:00</time>
        <ele>1984.0</ele>
      </trkpt>
      <trkpt lat="47.054315" lon="13.043759">
        <time>1970-01-01T00:00:00+00:00</time>
        <ele>1980.0</ele>
      </trkpt>
      <trkpt lat="47.054311" lon="13.043864">
        <time>1970-01-01T00:00:00+00:00</time>
        <ele>1975.0</ele>
      </trkpt>
      <trkpt lat="47.05427" lon="13.043896">
        <time>1970-01-01T00:00:00+00:00</time>
        <ele>1973.0</ele>
      </trkpt>
      <trkpt lat="47.054151" lon="13.043797">
        <time>1970-01-01T00:00:00+00:00</time>
        <ele>1980.0</ele>
      </trkpt>
      <trkpt lat="47.053919" lon="13.044073">
        <time>1970-01-01T00:00:00+00:00</time>
        <ele>1970.0</ele>
      </trkpt>
      <trkpt lat="47.053897" lon="13.044199">
        <time>1970-01-01T00:00:00+00:00</time>
        <ele>1965.0</ele>
      </trkpt>
      <trkpt lat="47.053782" lon="13.044272">
        <time>1970-01-01T00:00:00+00:00</time>
        <ele>1964.0</ele>
      </trkpt>
      <trkpt lat="47.053566" lon="13.044634">
        <time>1970-01-01T00:00:00+00:00</time>
        <ele>1946.0</ele>
      </trkpt>
      <trkpt lat="47.053605" lon="13.04476">
        <time>1970-01-01T00:00:00+00:00</time>
        <ele>1939.0</ele>
      </trkpt>
      <trkpt lat="47.053632" lon="13.044768">
        <time>1970-01-01T00:00:00+00:00</time>
        <ele>1939.0</ele>
      </trkpt>
      <trkpt lat="47.053616" lon="13.044845">
        <time>1970-01-01T00:00:00+00:00</time>
        <ele>1935.0</ele>
      </trkpt>
      <trkpt lat="47.053577" lon="13.044859">
        <time>1970-01-01T00:00:00+00:00</time>
        <ele>1934.0</ele>
      </trkpt>
      <trkpt lat="47.053592" lon="13.044894">
        <time>1970-01-01T00:00:00+00:00</time>
        <ele>1932.0</ele>
      </trkpt>
      <trkpt lat="47.053722" lon="13.04494">
        <time>1970-01-01T00:00:00+00:00</time>
        <ele>1931.0</ele>
      </trkpt>
      <trkpt lat="47.053707" lon="13.044985">
        <time>1970-01-01T00:00:00+00:00</time>
        <ele>1929.0</ele>
      </trkpt>
      <trkpt lat="47.053605" lon="13.045058">
        <time>1970-01-01T00:00:00+00:00</time>
        <ele>1926.0</ele>
      </trkpt>
      <trkpt lat="47.053648" lon="13.045109">
        <time>1970-01-01T00:00:00+00:00</time>
        <ele>1924.0</ele>
      </trkpt>
      <trkpt lat="47.053921" lon="13.045125">
        <time>1970-01-01T00:00:00+00:00</time>
        <ele>1924.0</ele>
      </trkpt>
      <trkpt lat="47.053999" lon="13.045197">
        <time>1970-01-01T00:00:00+00:00</time>
        <ele>1921.0</ele>
      </trkpt>
      <trkpt lat="47.054045" lon="13.045162">
        <time>1970-01-01T00:00:00+00:00</time>
        <ele>1922.0</ele>
      </trkpt>
      <trkpt lat="47.054058" lon="13.045125">
        <time>1970-01-01T00:00:00+00:00</time>
        <ele>1923.0</ele>
      </trkpt>
      <trkpt lat="47.054078" lon="13.045127">
        <time>1970-01-01T00:00:00+00:00</time>
        <ele>1922.0</ele>
      </trkpt>
      <trkpt lat="47.0541" lon="13.045184">
        <time>1970-01-01T00:00:00+00:00</time>
        <ele>1920.0</ele>
      </trkpt>
      <trkpt lat="47.054242" lon="13.045058">
        <time>1970-01-01T00:00:00+00:00</time>
        <ele>1921.0</ele>
      </trkpt>
      <trkpt lat="47.054321" lon="13.045114">
        <time>1970-01-01T00:00:00+00:00</time>
        <ele>1917.0</ele>
      </trkpt>
      <trkpt lat="47.054409" lon="13.045109">
        <time>1970-01-01T00:00:00+00:00</time>
        <ele>1914.0</ele>
      </trkpt>
      <trkpt lat="47.054537" lon="13.045186">
        <time>1970-01-01T00:00:00+00:00</time>
        <ele>1908.0</ele>
      </trkpt>
      <trkpt lat="47.054473" lon="13.045251">
        <time>1970-01-01T00:00:00+00:00</time>
        <ele>1908.0</ele>
      </trkpt>
      <trkpt lat="47.054661" lon="13.045387">
        <time>1970-01-01T00:00:00+00:00</time>
        <ele>1899.0</ele>
      </trkpt>
      <trkpt lat="47.054468" lon="13.045516">
        <time>1970-01-01T00:00:00+00:00</time>
        <ele>1901.0</ele>
      </trkpt>
      <trkpt lat="47.054429" lon="13.04557">
        <time>1970-01-01T00:00:00+00:00</time>
        <ele>1900.0</ele>
      </trkpt>
      <trkpt lat="47.054378" lon="13.045833">
        <time>1970-01-01T00:00:00+00:00</time>
        <ele>1892.0</ele>
      </trkpt>
      <trkpt lat="47.05425" lon="13.04609">
        <time>1970-01-01T00:00:00+00:00</time>
        <ele>1879.0</ele>
      </trkpt>
      <trkpt lat="47.054266" lon="13.046136">
        <time>1970-01-01T00:00:00+00:00</time>
        <ele>1875.0</ele>
      </trkpt>
      <trkpt lat="47.054244" lon="13.046189">
        <time>1970-01-01T00:00:00+00:00</time>
        <ele>1871.0</ele>
      </trkpt>
      <trkpt lat="47.054272" lon="13.046189">
        <time>1970-01-01T00:00:00+00:00</time>
        <ele>1871.0</ele>
      </trkpt>
      <trkpt lat="47.054309" lon="13.046358">
        <time>1970-01-01T00:00:00+00:00</time>
        <ele>1858.0</ele>
      </trkpt>
      <trkpt lat="47.054208" lon="13.046455">
        <time>1970-01-01T00:00:00+00:00</time>
        <ele>1852.0</ele>
      </trkpt>
      <trkpt lat="47.054124" lon="13.046468">
        <time>1970-01-01T00:00:00+00:00</time>
        <ele>1851.0</ele>
      </trkpt>
      <trkpt lat="47.054074" lon="13.046498">
        <time>1970-01-01T00:00:00+00:00</time>
        <ele>1849.0</ele>
      </trkpt>
      <trkpt lat="47.054127" lon="13.046549">
        <time>1970-01-01T00:00:00+00:00</time>
        <ele>1846.0</ele>
      </trkpt>
      <trkpt lat="47.054005" lon="13.046626">
        <time>1970-01-01T00:00:00+00:00</time>
        <ele>1843.0</ele>
      </trkpt>
      <trkpt lat="47.053944" lon="13.046637">
        <time>1970-01-01T00:00:00+00:00</time>
        <ele>1843.0</ele>
      </trkpt>
      <trkpt lat="47.053947" lon="13.046669">
        <time>1970-01-01T00:00:00+00:00</time>
        <ele>1842.0</ele>
      </trkpt>
      <trkpt lat="47.053844" lon="13.046707">
        <time>1970-01-01T00:00:00+00:00</time>
        <ele>1840.0</ele>
      </trkpt>
      <trkpt lat="47.053848" lon="13.046742">
        <time>1970-01-01T00:00:00+00:00</time>
        <ele>1839.0</ele>
      </trkpt>
      <trkpt lat="47.053886" lon="13.04678">
        <time>1970-01-01T00:00:00+00:00</time>
        <ele>1838.0</ele>
      </trkpt>
      <trkpt lat="47.053932" lon="13.046938">
        <time>1970-01-01T00:00:00+00:00</time>
        <ele>1830.0</ele>
      </trkpt>
      <trkpt lat="47.054098" lon="13.046999">
        <time>1970-01-01T00:00:00+00:00</time>
        <ele>1826.0</ele>
      </trkpt>
      <trkpt lat="47.054038" lon="13.047056">
        <time>1970-01-01T00:00:00+00:00</time>
        <ele>1823.0</ele>
      </trkpt>
      <trkpt lat="47.053981" lon="13.047195">
        <time>1970-01-01T00:00:00+00:00</time>
        <ele>1815.0</ele>
      </trkpt>
      <trkpt lat="47.054078" lon="13.0473">
        <time>1970-01-01T00:00:00+00:00</time>
        <ele>1808.0</ele>
      </trkpt>
      <trkpt lat="47.054007" lon="13.047421">
        <time>1970-01-01T00:00:00+00:00</time>
        <ele>1801.0</ele>
      </trkpt>
      <trkpt lat="47.054387" lon="13.047587">
        <time>1970-01-01T00:00:00+00:00</time>
        <ele>1792.0</ele>
      </trkpt>
      <trkpt lat="47.054309" lon="13.047654">
        <time>1970-01-01T00:00:00+00:00</time>
        <ele>1788.0</ele>
      </trkpt>
      <trkpt lat="47.054338" lon="13.047689">
        <time>1970-01-01T00:00:00+00:00</time>
        <ele>1785.0</ele>
      </trkpt>
      <trkpt lat="47.054471" lon="13.047758">
        <time>1970-01-01T00:00:00+00:00</time>
        <ele>1780.0</ele>
      </trkpt>
      <trkpt lat="47.054487" lon="13.04781">
        <time>1970-01-01T00:00:00+00:00</time>
        <ele>1777.0</ele>
      </trkpt>
      <trkpt lat="47.054389" lon="13.047919">
        <time>1970-01-01T00:00:00+00:00</time>
        <ele>1770.0</ele>
      </trkpt>
      <trkpt lat="47.054427" lon="13.04797">
        <time>1970-01-01T00:00:00+00:00</time>
        <ele>1767.0</ele>
      </trkpt>
      <trkpt lat="47.054341" lon="13.048072">
        <time>1970-01-01T00:00:00+00:00</time>
        <ele>1760.0</ele>
      </trkpt>
      <trkpt lat="47.054052" lon="13.048196">
        <time>1970-01-01T00:00:00+00:00</time>
        <ele>1754.0</ele>
      </trkpt>
      <trkpt lat="47.054049" lon="13.048263">
        <time>1970-01-01T00:00:00+00:00</time>
        <ele>1751.0</ele>
      </trkpt>
      <trkpt lat="47.053822" lon="13.048496">
        <time>1970-01-01T00:00:00+00:00</time>
        <ele>1741.0</ele>
      </trkpt>
      <trkpt lat="47.053033" lon="13.048805">
        <time>1970-01-01T00:00:00+00:00</time>
        <ele>1718.0</ele>
      </trkpt>
      <trkpt lat="47.053092" lon="13.048847">
        <time>1970-01-01T00:00:00+00:00</time>
        <ele>1716.0</ele>
      </trkpt>
      <trkpt lat="47.052991" lon="13.048923">
        <time>1970-01-01T00:00:00+00:00</time>
        <ele>1711.0</ele>
      </trkpt>
      <trkpt lat="47.052855" lon="13.048947">
        <time>1970-01-01T00:00:00+00:00</time>
        <ele>1710.0</ele>
      </trkpt>
      <trkpt lat="47.052779" lon="13.048928">
        <time>1970-01-01T00:00:00+00:00</time>
        <ele>1712.0</ele>
      </trkpt>
      <trkpt lat="47.052531" lon="13.049153">
        <time>1970-01-01T00:00:00+00:00</time>
        <ele>1703.0</ele>
      </trkpt>
      <trkpt lat="47.052419" lon="13.049169">
        <time>1970-01-01T00:00:00+00:00</time>
        <ele>1703.0</ele>
      </trkpt>
      <trkpt lat="47.05215" lon="13.049368">
        <time>1970-01-01T00:00:00+00:00</time>
        <ele>1699.0</ele>
      </trkpt>
      <trkpt lat="47.051965" lon="13.049408">
        <time>1970-01-01T00:00:00+00:00</time>
        <ele>1701.0</ele>
      </trkpt>
      <trkpt lat="47.051872" lon="13.049558">
        <time>1970-01-01T00:00:00+00:00</time>
        <ele>1699.0</ele>
      </trkpt>
      <trkpt lat="47.051839" lon="13.049714">
        <time>1970-01-01T00:00:00+00:00</time>
        <ele>1697.0</ele>
      </trkpt>
      <trkpt lat="47.051768" lon="13.049792">
        <time>1970-01-01T00:00:00+00:00</time>
        <ele>1696.0</ele>
      </trkpt>
      <trkpt lat="47.051582" lon="13.050186">
        <time>1970-01-01T00:00:00+00:00</time>
        <ele>1685.0</ele>
      </trkpt>
      <trkpt lat="47.051607" lon="13.050215">
        <time>1970-01-01T00:00:00+00:00</time>
        <ele>1685.0</ele>
      </trkpt>
      <trkpt lat="47.051599" lon="13.050486">
        <time>1970-01-01T00:00:00+00:00</time>
        <ele>1678.0</ele>
      </trkpt>
      <trkpt lat="47.051295" lon="13.050647">
        <time>1970-01-01T00:00:00+00:00</time>
        <ele>1670.0</ele>
      </trkpt>
      <trkpt lat="47.051657" lon="13.051017">
        <time>1970-01-01T00:00:00+00:00</time>
        <ele>1658.0</ele>
      </trkpt>
      <trkpt lat="47.051845" lon="13.051259">
        <time>1970-01-01T00:00:00+00:00</time>
        <ele>1652.0</ele>
      </trkpt>
      <trkpt lat="47.051943" lon="13.05128">
        <time>1970-01-01T00:00:00+00:00</time>
        <ele>1651.0</ele>
      </trkpt>
      <trkpt lat="47.052242" lon="13.051213">
        <time>1970-01-01T00:00:00+00:00</time>
        <ele>1650.0</ele>
      </trkpt>
      <trkpt lat="47.052442" lon="13.051323">
        <time>1970-01-01T00:00:00+00:00</time>
        <ele>1645.0</ele>
      </trkpt>
      <trkpt lat="47.05342" lon="13.051449">
        <time>1970-01-01T00:00:00+00:00</time>
        <ele>1626.0</ele>
      </trkpt>
      <trkpt lat="47.053442" lon="13.0515">
        <time>1970-01-01T00:00:00+00:00</time>
        <ele>1624.0</ele>
      </trkpt>
      <trkpt lat="47.053442" lon="13.051597">
        <time>1970-01-01T00:00:00+00:00</time>
        <ele>1623.0</ele>
      </trkpt>
      <trkpt lat="47.053158" lon="13.051846">
        <time>1970-01-01T00:00:00+00:00</time>
        <ele>1624.0</ele>
      </trkpt>
      <trkpt lat="47.052978" lon="13.052117">
        <time>1970-01-01T00:00:00+00:00</time>
        <ele>1623.0</ele>
      </trkpt>
      <trkpt lat="47.052584" lon="13.052879">
        <time>1970-01-01T00:00:00+00:00</time>
        <ele>1615.0</ele>
      </trkpt>
      <trkpt lat="47.052116" lon="13.053479">
        <time>1970-01-01T00:00:00+00:00</time>
        <ele>1610.0</ele>
      </trkpt>
      <trkpt lat="47.051397" lon="13.05418">
        <time>1970-01-01T00:00:00+00:00</time>
        <ele>1605.0</ele>
      </trkpt>
      <trkpt lat="47.051023" lon="13.054582">
        <time>1970-01-01T00:00:00+00:00</time>
        <ele>1603.0</ele>
      </trkpt>
      <trkpt lat="47.050979" lon="13.054735">
        <time>1970-01-01T00:00:00+00:00</time>
        <ele>1603.0</ele>
      </trkpt>
      <trkpt lat="47.050977" lon="13.055248">
        <time>1970-01-01T00:00:00+00:00</time>
        <ele>1602.0</ele>
      </trkpt>
      <trkpt lat="47.051207" lon="13.055827">
        <time>1970-01-01T00:00:00+00:00</time>
        <ele>1604.0</ele>
      </trkpt>
      <trkpt lat="47.051373" lon="13.056151">
        <time>1970-01-01T00:00:00+00:00</time>
        <ele>1605.0</ele>
      </trkpt>
      <trkpt lat="47.051499" lon="13.056197">
        <time>1970-01-01T00:00:00+00:00</time>
        <ele>1605.0</ele>
      </trkpt>
      <trkpt lat="47.051748" lon="13.056135">
        <time>1970-01-01T00:00:00+00:00</time>
        <ele>1605.0</ele>
      </trkpt>
      <trkpt lat="47.051868" lon="13.056199">
        <time>1970-01-01T00:00:00+00:00</time>
        <ele>1605.0</ele>
      </trkpt>
      <trkpt lat="47.051954" lon="13.056342">
        <time>1970-01-01T00:00:00+00:00</time>
        <ele>1605.0</ele>
      </trkpt>
      <trkpt lat="47.051984" lon="13.056626">
        <time>1970-01-01T00:00:00+00:00</time>
        <ele>1604.0</ele>
      </trkpt>
      <trkpt lat="47.051902" lon="13.05687">
        <time>1970-01-01T00:00:00+00:00</time>
        <ele>1605.0</ele>
      </trkpt>
      <trkpt lat="47.051911" lon="13.05702">
        <time>1970-01-01T00:00:00+00:00</time>
        <ele>1605.0</ele>
      </trkpt>
      <trkpt lat="47.052034" lon="13.057025">
        <time>1970-01-01T00:00:00+00:00</time>
        <ele>1604.0</ele>
      </trkpt>
      <trkpt lat="47.052406" lon="13.05685">
        <time>1970-01-01T00:00:00+00:00</time>
        <ele>1603.0</ele>
      </trkpt>
      <trkpt lat="47.053284" lon="13.055835">
        <time>1970-01-01T00:00:00+00:00</time>
        <ele>1597.0</ele>
      </trkpt>
      <trkpt lat="47.053838" lon="13.055388">
        <time>1970-01-01T00:00:00+00:00</time>
        <ele>1590.0</ele>
      </trkpt>
      <trkpt lat="47.054066" lon="13.055333">
        <time>1970-01-01T00:00:00+00:00</time>
        <ele>1588.0</ele>
      </trkpt>
      <trkpt lat="47.054563" lon="13.054905">
        <time>1970-01-01T00:00:00+00:00</time>
        <ele>1590.0</ele>
      </trkpt>
      <trkpt lat="47.054862" lon="13.05475">
        <time>1970-01-01T00:00:00+00:00</time>
        <ele>1588.0</ele>
      </trkpt>
      <trkpt lat="47.055123" lon="13.054782">
        <time>1970-01-01T00:00:00+00:00</time>
        <ele>1588.0</ele>
      </trkpt>
      <trkpt lat="47.055328" lon="13.054913">
        <time>1970-01-01T00:00:00+00:00</time>
        <ele>1587.0</ele>
      </trkpt>
      <trkpt lat="47.055469" lon="13.054945">
        <time>1970-01-01T00:00:00+00:00</time>
        <ele>1586.0</ele>
      </trkpt>
      <trkpt lat="47.055794" lon="13.054873">
        <time>1970-01-01T00:00:00+00:00</time>
        <ele>1586.0</ele>
      </trkpt>
      <trkpt lat="47.0559" lon="13.054924">
        <time>1970-01-01T00:00:00+00:00</time>
        <ele>1586.0</ele>
      </trkpt>
      <trkpt lat="47.055967" lon="13.054993">
        <time>1970-01-01T00:00:00+00:00</time>
        <ele>1586.0</ele>
      </trkpt>
      <trkpt lat="47.056454" lon="13.055702">
        <time>1970-01-01T00:00:00+00:00</time>
        <ele>1583.0</ele>
      </trkpt>
      <trkpt lat="47.056571" lon="13.055799">
        <time>1970-01-01T00:00:00+00:00</time>
        <ele>1583.0</ele>
      </trkpt>
      <trkpt lat="47.056767" lon="13.055816">
        <time>1970-01-01T00:00:00+00:00</time>
        <ele>1582.0</ele>
      </trkpt>
      <trkpt lat="47.056994" lon="13.055821">
        <time>1970-01-01T00:00:00+00:00</time>
        <ele>1582.0</ele>
      </trkpt>
      <trkpt lat="47.057159" lon="13.055905">
        <time>1970-01-01T00:00:00+00:00</time>
        <ele>1582.0</ele>
      </trkpt>
      <trkpt lat="47.057385" lon="13.05617">
        <time>1970-01-01T00:00:00+00:00</time>
        <ele>1581.0</ele>
      </trkpt>
      <trkpt lat="47.057643" lon="13.056282">
        <time>1970-01-01T00:00:00+00:00</time>
        <ele>1580.0</ele>
      </trkpt>
      <trkpt lat="47.058383" lon="13.056209">
        <time>1970-01-01T00:00:00+00:00</time>
        <ele>1580.0</ele>
      </trkpt>
      <trkpt lat="47.058644" lon="13.056273">
        <time>1970-01-01T00:00:00+00:00</time>
        <ele>1580.0</ele>
      </trkpt>
      <trkpt lat="47.058915" lon="13.056595">
        <time>1970-01-01T00:00:00+00:00</time>
        <ele>1579.0</ele>
      </trkpt>
      <trkpt lat="47.059294" lon="13.057223">
        <time>1970-01-01T00:00:00+00:00</time>
        <ele>1578.0</ele>
      </trkpt>
      <trkpt lat="47.059393" lon="13.057347">
        <time>1970-01-01T00:00:00+00:00</time>
        <ele>1578.0</ele>
      </trkpt>
      <trkpt lat="47.059718" lon="13.057549">
        <time>1970-01-01T00:00:00+00:00</time>
        <ele>1578.0</ele>
      </trkpt>
      <trkpt lat="47.060862" lon="13.057771">
        <time>1970-01-01T00:00:00+00:00</time>
        <ele>1578.0</ele>
      </trkpt>
      <trkpt lat="47.060983" lon="13.057788">
        <time>1970-01-01T00:00:00+00:00</time>
        <ele>1578.0</ele>
      </trkpt>
      <trkpt lat="47.061124" lon="13.057803">
        <time>1970-01-01T00:00:00+00:00</time>
        <ele>1578.0</ele>
      </trkpt>
      <trkpt lat="47.061205" lon="13.057774">
        <time>1970-01-01T00:00:00+00:00</time>
        <ele>1578.0</ele>
      </trkpt>
    </trkseg>
  </trk>
</gpx>
